Observation data for Fort Lancaster on 11/21/2019      Previous  Date       Current Mesonet Observations  Soil Data  Daily Summary Page  Observations in Plain Language
KLA1 210600Z 11004KT 17/17 A299 RMK A01 T01740174  RH  100%=      5-min Rain = 0
KLA1 210601Z 12003KT 17/18 A299 RMK A01 T01740175  RH  100%=      5-min Rain = 0
KLA1 210602Z 10005KT 17/17 A299 RMK A01 T01740174  RH  100%=      5-min Rain = 0
KLA1 210603Z 09003KT 17/17 A299 RMK A01 T01740174  RH  100%=      5-min Rain = 0
KLA1 210604Z 09003KT 17/17 A299 RMK A01 T01740174  RH  100%=      5-min Rain = 0
KLA1 210605Z 10003KT 18/18 A299 RMK A01 T01750175  RH  100%=      5-min Rain = 0
KLA1 210606Z 11003KT 18/18 A299 RMK A01 T01750175  RH  100%=      5-min Rain = 0
KLA1 210607Z 09003KT 18/18 A299 RMK A01 T01750175  RH  100%=      5-min Rain = 0
KLA1 210608Z 09003KT 18/18 A299 RMK A01 T01750175  RH  100%=      5-min Rain = 0
KLA1 210609Z 12003KT 18/18 A299 RMK A01 T01750175  RH  100%=      5-min Rain = 0
KLA1 210610Z 09003KT 18/18 A299 RMK A01 T01750175  RH  100%=      5-min Rain = 0
KLA1 210611Z 10004KT 18/18 A299 RMK A01 T01750175  RH  100%=      5-min Rain = 0
KLA1 210612Z 11007KT 18/18 A299 RMK A01 T01750175  RH  100%=      5-min Rain = 0
KLA1 210613Z 11007KT 18/18 A299 RMK A01 T01760176  RH  100%=      5-min Rain = 0
KLA1 210614Z 10005KT 18/18 A299 RMK A01 T01760176  RH  100%=      5-min Rain = 0
KLA1 210615Z 10005KT 18/18 A299 RMK A01 T01760176  RH  100%=      5-min Rain = 0
KLA1 210616Z 11005KT 18/18 A299 RMK A01 T01760176  RH  100%=      5-min Rain = 0
KLA1 210617Z 11006KT 18/18 A299 RMK A01 T01760176  RH  100%=      5-min Rain = 0
KLA1 210618Z 11006KT 18/18 A299 RMK A01 T01760176  RH  100%=      5-min Rain = 0
KLA1 210619Z 11005KT 18/18 A299 RMK A01 T01760176  RH  100%=      5-min Rain = 0
KLA1 210620Z 11005KT 18/18 A2989 RMK A01 T01760176  RH  100%=      5-min Rain = 0
KLA1 210621Z 10004KT 18/18 A2989 RMK A01 T01760176  RH  100%=      5-min Rain = 0
KLA1 210622Z 11005KT 18/18 A299 RMK A01 T01760176  RH  100%=      5-min Rain = 0
KLA1 210623Z 11004KT 18/18 A299 RMK A01 T01760176  RH  100%=      5-min Rain = 0
KLA1 210624Z 10004KT 18/18 A2989 RMK A01 T01750175  RH  100%=      5-min Rain = 0
KLA1 210625Z 10005KT 18/18 A2989 RMK A01 T01750176  RH  100%=      5-min Rain = 0
KLA1 210626Z 10005KT 18/18 A2989 RMK A01 T01750175  RH  100%=      5-min Rain = 0
KLA1 210627Z 10004KT 18/18 A2989 RMK A01 T01750175  RH  100%=      5-min Rain = 0
KLA1 210628Z 10003KT 18/18 A2989 RMK A01 T01750175  RH  100%=      5-min Rain = 0
KLA1 210629Z 11005KT 18/18 A2989 RMK A01 T01750175  RH  100%=      5-min Rain = 0
KLA1 210630Z 11006KT 18/18 A2989 RMK A01 T01750175  RH  100%=      5-min Rain = 0
KLA1 210631Z 10005KT 18/18 A2989 RMK A01 T01750175  RH  100%=      5-min Rain = 0
KLA1 210632Z 10004KT 18/18 A2989 RMK A01 T01750175  RH  100%=      5-min Rain = 0
KLA1 210633Z 11005KT 18/18 A2989 RMK A01 T01750175  RH  100%=      5-min Rain = 0
KLA1 210634Z 10003KT 18/18 A2989 RMK A01 T01760176  RH  100%=      5-min Rain = 0
KLA1 210635Z 10002KT 18/18 A2989 RMK A01 T01760176  RH  100%=      5-min Rain = 0
KLA1 210636Z 10003KT 18/18 A2989 RMK A01 T01760176  RH  100%=      5-min Rain = 0
KLA1 210637Z 10003KT 18/18 A2989 RMK A01 T01760176  RH  100%=      5-min Rain = 0
KLA1 210638Z 10003KT 18/18 A2989 RMK A01 T01760176  RH  100%=      5-min Rain = 0
KLA1 210639Z 10003KT 18/18 A2989 RMK A01 T01750175  RH  100%=      5-min Rain = 0
KLA1 210640Z 11002KT 18/18 A2989 RMK A01 T01750175  RH  100%=      5-min Rain = 0
KLA1 210641Z 10003KT 18/18 A2989 RMK A01 T01750176  RH  100%=      5-min Rain = 0
KLA1 210642Z 10002KT 18/18 A2989 RMK A01 T01750175  RH  100%=      5-min Rain = 0
KLA1 210643Z 09003KT 18/18 A2989 RMK A01 T01750175  RH  100%=      5-min Rain = 0
KLA1 210644Z 09002KT 18/18 A2989 RMK A01 T01750175  RH  100%=      5-min Rain = 0
KLA1 210645Z 09003KT 18/18 A2989 RMK A01 T01750175  RH  100%=      5-min Rain = 0
KLA1 210646Z 08003KT 18/18 A2989 RMK A01 T01750175  RH  100%=      5-min Rain = 0
KLA1 210647Z 11003KT 18/18 A2989 RMK A01 T01750175  RH  100%=      5-min Rain = 0
KLA1 210648Z 12002KT 18/18 A2989 RMK A01 T01750175  RH  100%=      5-min Rain = 0
KLA1 210649Z 11002KT 17/17 A2989 RMK A01 T01740174  RH  100%=      5-min Rain = 0
KLA1 210650Z 12003KT 17/17 A2989 RMK A01 T01740174  RH  100%=      5-min Rain = 0
KLA1 210651Z 11003KT 17/17 A2989 RMK A01 T01740174  RH  100%=      5-min Rain = 0
KLA1 210652Z 09002KT 17/17 A2989 RMK A01 T01740174  RH  100%=      5-min Rain = 0
KLA1 210653Z 08000KT 17/17 A2989 RMK A01 T01740174  RH  100%=      5-min Rain = 0
KLA1 210654Z 09002KT 17/17 A2989 RMK A01 T01740174  RH  100%=      5-min Rain = 0
KLA1 210655Z 09002KT 17/17 A2989 RMK A01 T01740174  RH  100%=      5-min Rain = 0
KLA1 210656Z 09002KT 17/17 A2989 RMK A01 T01740174  RH  100%=      5-min Rain = 0
KLA1 210657Z 06004KT 17/17 A2989 RMK A01 T01740174  RH  100%=      5-min Rain = 0
KLA1 210658Z 06003KT 17/17 A2989 RMK A01 T01740174  RH  100%=      5-min Rain = 0
KLA1 210659Z 08002KT 17/17 A2989 RMK A01 T01740174  RH  100%=      5-min Rain = 0
KLA1 210700Z 08002KT 17/17 A2989 RMK A01 T01740174  RH  100%=      5-min Rain = 0
KLA1 210701Z 09004KT 17/17 A2989 RMK A01 T01730173  RH  100%=      5-min Rain = 0
KLA1 210702Z 10004KT 17/17 A2989 RMK A01 T01730174  RH  100%=      5-min Rain = 0
KLA1 210703Z 11003KT 17/17 A2989 RMK A01 T01730173  RH  100%=      5-min Rain = 0
KLA1 210704Z 08003KT 17/17 A2989 RMK A01 T01740174  RH  100%=      5-min Rain = 0
KLA1 210705Z 09002KT 17/17 A2989 RMK A01 T01740174  RH  100%=      5-min Rain = 0
KLA1 210706Z 09003KT 17/17 A2989 RMK A01 T01740174  RH  100%=      5-min Rain = 0
KLA1 210707Z 08003KT 17/17 A2989 RMK A01 T01730173  RH  100%=      5-min Rain = 0
KLA1 210708Z 08003KT 17/17 A2989 RMK A01 T01730173  RH  100%=      5-min Rain = 0
KLA1 210709Z 07002KT 17/17 A2989 RMK A01 T01720173  RH  100%=      5-min Rain = 0
KLA1 210710Z 07003KT 17/17 A2989 RMK A01 T01720172  RH  100%=      5-min Rain = 0
KLA1 210711Z 08004KT 17/17 A2989 RMK A01 T01720172  RH  100%=      5-min Rain = 0
KLA1 210712Z 07003KT 17/17 A2989 RMK A01 T01720172  RH  100%=      5-min Rain = 0
KLA1 210713Z 06003KT 17/17 A2989 RMK A01 T01720172  RH  100%=      5-min Rain = 0
KLA1 210714Z 07003KT 17/17 A2989 RMK A01 T01720172  RH  100%=      5-min Rain = 0
KLA1 210715Z 09005KT 17/17 A2989 RMK A01 T01710171  RH  100%=      5-min Rain = 0
KLA1 210716Z 07004KT 17/17 A2989 RMK A01 T01710171  RH  100%=      5-min Rain = 0
KLA1 210717Z 08004KT 17/17 A2989 RMK A01 T01710172  RH  100%=      5-min Rain = 0
KLA1 210718Z 10006KT 17/17 A2989 RMK A01 T01720172  RH  100%=      5-min Rain = 0
KLA1 210719Z 10005KT 17/17 A2989 RMK A01 T01730173  RH  100%=      5-min Rain = 0
KLA1 210720Z 08006KT 17/17 A2989 RMK A01 T01740174  RH  100%=      5-min Rain = 0
KLA1 210721Z 09004KT 17/18 A2989 RMK A01 T01740175  RH  100%=      5-min Rain = 0
KLA1 210722Z 08006KT 17/18 A2989 RMK A01 T01740175  RH  100%=      5-min Rain = 0
KLA1 210723Z 10006KT 17/17 A2989 RMK A01 T01740174  RH  100%=      5-min Rain = 0
KLA1 210724Z 08006KT 18/18 A2989 RMK A01 T01750176  RH  100%=      5-min Rain = 0
KLA1 210725Z 10007KT 18/18 A2989 RMK A01 T01760176  RH  100%=      5-min Rain = 0
KLA1 210726Z 10006KT 18/18 A2989 RMK A01 T01760176  RH  100%=      5-min Rain = 0
KLA1 210727Z 09007KT 18/18 A2989 RMK A01 T01760176  RH  100%=      5-min Rain = 0
KLA1 210728Z 09006KT 18/18 A2989 RMK A01 T01760176  RH  100%=      5-min Rain = 0
KLA1 210729Z 10006KT 18/18 A2989 RMK A01 T01770177  RH  100%=      5-min Rain = 0
KLA1 210730Z 11007KT 18/18 A2989 RMK A01 T01770177  RH  100%=      5-min Rain = 0
KLA1 210731Z 10006KT 18/18 A2989 RMK A01 T01760177  RH  100%=      5-min Rain = 0
KLA1 210732Z 10007KT 18/18 A2989 RMK A01 T01760177  RH  100%=      5-min Rain = 0
KLA1 210733Z 10005KT 18/18 A2989 RMK A01 T01770177  RH  100%=      5-min Rain = 0
KLA1 210734Z 10006KT 18/18 A2989 RMK A01 T01770177  RH  100%=      5-min Rain = 0
KLA1 210735Z 10006KT 18/18 A2989 RMK A01 T01760177  RH  100%=      5-min Rain = 0
KLA1 210736Z 11005KT 18/18 A2989 RMK A01 T01760177  RH  100%=      5-min Rain = 0
KLA1 210737Z 10004KT 18/18 A2989 RMK A01 T01760177  RH  100%=      5-min Rain = 0
KLA1 210738Z 10007KT 18/18 A2989 RMK A01 T01770177  RH  100%=      5-min Rain = 0
KLA1 210739Z 11005KT 18/18 A2989 RMK A01 T01770177  RH  100%=      5-min Rain = 0
KLA1 210740Z 10006KT 18/18 A2989 RMK A01 T01770177  RH  100%=      5-min Rain = 0
KLA1 210741Z 10006KT 18/18 A2989 RMK A01 T01760176  RH  100%=      5-min Rain = 0
KLA1 210742Z 09005KT 18/18 A2989 RMK A01 T01760176  RH  100%=      5-min Rain = 0
KLA1 210743Z 11006KT 18/18 A2989 RMK A01 T01760176  RH  100%=      5-min Rain = 0
KLA1 210744Z 10004KT 18/18 A2989 RMK A01 T01760176  RH  100%=      5-min Rain = 0
KLA1 210745Z 11007KT 18/18 A2989 RMK A01 T01760176  RH  100%=      5-min Rain = 0
KLA1 210746Z 09004KT 18/18 A2989 RMK A01 T01760177  RH  100%=      5-min Rain = 0
KLA1 210747Z 09005KT 18/18 A2989 RMK A01 T01770177  RH  100%=      5-min Rain = 0
KLA1 210748Z 10006KT 18/18 A299 RMK A01 T01770177  RH  100%=      5-min Rain = 0
KLA1 210749Z 09005KT 18/18 A299 RMK A01 T01770177  RH  100%=      5-min Rain = 0
KLA1 210750Z 10003KT 18/18 A299 RMK A01 T01770177  RH  100%=      5-min Rain = 0
KLA1 210751Z 08003KT 18/18 A299 RMK A01 T01770177  RH  100%=      5-min Rain = 0
KLA1 210752Z 10003KT 18/18 A299 RMK A01 T01770177  RH  100%=      5-min Rain = 0
KLA1 210753Z 09004KT 18/18 A299 RMK A01 T01770177  RH  100%=      5-min Rain = 0
KLA1 210754Z 09006KT 18/18 A299 RMK A01 T01770177  RH  100%=      5-min Rain = 0
KLA1 210755Z 10006KT 18/18 A299 RMK A01 T01770177  RH  100%=      5-min Rain = 0
KLA1 210756Z 09005KT 18/18 A299 RMK A01 T01770177  RH  100%=      5-min Rain = 0
KLA1 210757Z 08006KT 18/18 A299 RMK A01 T01770178  RH  100%=      5-min Rain = 0
KLA1 210758Z 09005KT 18/18 A299 RMK A01 T01770178  RH  100%=      5-min Rain = 0
KLA1 210759Z 10006KT 18/18 A299 RMK A01 T01780178  RH  100%=      5-min Rain = 0
KLA1 210800Z 10005KT 18/18 A299 RMK A01 T01780178  RH  100%=      5-min Rain = 0
KLA1 210801Z 08006KT 18/18 A299 RMK A01 T01780178  RH  100%=      5-min Rain = 0
KLA1 210802Z 10005KT 18/18 A299 RMK A01 T01780178  RH  100%=      5-min Rain = 0
KLA1 210803Z 10006KT 18/18 A299 RMK A01 T01780178  RH  100%=      5-min Rain = 0
KLA1 210804Z 08006KT 18/18 A299 RMK A01 T01790179  RH  100%=      5-min Rain = 0
KLA1 210805Z 08005KT 18/18 A299 RMK A01 T01780179  RH  100%=      5-min Rain = 0
KLA1 210806Z 08005KT 18/18 A299 RMK A01 T01780178  RH  100%=      5-min Rain = 0
KLA1 210807Z 11005KT 18/18 A299 RMK A01 T01780179  RH  100%=      5-min Rain = 0
KLA1 210808Z 10005KT 18/18 A299 RMK A01 T01790179  RH  100%=      5-min Rain = 0
KLA1 210809Z 09006KT 18/18 A299 RMK A01 T01790179  RH  100%=      5-min Rain = 0
KLA1 210810Z 09008KT 18/18 A299 RMK A01 T01790179  RH  100%=      5-min Rain = 0
KLA1 210811Z 09006KT 18/18 A299 RMK A01 T01790179  RH  100%=      5-min Rain = 0
KLA1 210812Z 10004KT 18/18 A299 RMK A01 T01790179  RH  100%=      5-min Rain = 0
KLA1 210813Z 08005KT 18/18 A299 RMK A01 T01790179  RH  100%=      5-min Rain = 0
KLA1 210814Z 09006KT 18/18 A299 RMK A01 T01790179  RH  100%=      5-min Rain = 0
KLA1 210815Z 09006KT 18/18 A299 RMK A01 T01800180  RH  100%=      5-min Rain = 0
KLA1 210816Z 11005KT 18/18 A299 RMK A01 T01800180  RH  100%=      5-min Rain = 0
KLA1 210817Z 10004KT 18/18 A299 RMK A01 T01800180  RH  100%=      5-min Rain = 0
KLA1 210818Z 12004KT 18/18 A299 RMK A01 T01800180  RH  100%=      5-min Rain = 0
KLA1 210819Z 11004KT 18/18 A299 RMK A01 T01800180  RH  100%=      5-min Rain = 0
KLA1 210820Z 10005KT 18/18 A299 RMK A01 T01800180  RH  100%=      5-min Rain = 0
KLA1 210821Z 10004KT 18/18 A299 RMK A01 T01800180  RH  100%=      5-min Rain = 0
KLA1 210822Z 11004KT 18/18 A299 RMK A01 T01800180  RH  100%=      5-min Rain = 0
KLA1 210823Z 13003KT 18/18 A299 RMK A01 T01800180  RH  100%=      5-min Rain = 0
KLA1 210824Z 11004KT 18/18 A299 RMK A01 T01800180  RH  100%=      5-min Rain = 0
KLA1 210825Z 12003KT 18/18 A299 RMK A01 T01790180  RH  100%=      5-min Rain = 0
KLA1 210826Z 10004KT 18/18 A299 RMK A01 T01790179  RH  100%=      5-min Rain = 0
KLA1 210827Z 11005KT 18/18 A299 RMK A01 T01790179  RH  100%=      5-min Rain = 0
KLA1 210828Z 11005KT 18/18 A299 RMK A01 T01790179  RH  100%=      5-min Rain = 0
KLA1 210829Z 11005KT 18/18 A299 RMK A01 T01790179  RH  100%=      5-min Rain = 0
KLA1 210830Z 11004KT 18/18 A299 RMK A01 T01790179  RH  100%=      5-min Rain = 0
KLA1 210831Z 11005KT 18/18 A299 RMK A01 T01790179  RH  100%=      5-min Rain = 0
KLA1 210832Z 12004KT 18/18 A299 RMK A01 T01790179  RH  100%=      5-min Rain = 0
KLA1 210833Z 11004KT 18/18 A299 RMK A01 T01790179  RH  100%=      5-min Rain = 0
KLA1 210834Z 10004KT 18/18 A299 RMK A01 T01790179  RH  100%=      5-min Rain = 0
KLA1 210835Z 11004KT 18/18 A299 RMK A01 T01780179  RH  100%=      5-min Rain = 0
KLA1 210836Z 10005KT 18/18 A299 RMK A01 T01780179  RH  100%=      5-min Rain = 0
KLA1 210837Z 11004KT 18/18 A299 RMK A01 T01780178  RH  100%=      5-min Rain = 0
KLA1 210838Z 12004KT 18/18 A299 RMK A01 T01780178  RH  100%=      5-min Rain = 0
KLA1 210839Z 11006KT 18/18 A299 RMK A01 T01780178  RH  100%=      5-min Rain = 0
KLA1 210840Z 11005KT 18/18 A299 RMK A01 T01780179  RH  100%=      5-min Rain = 0
KLA1 210841Z 12005KT 18/18 A299 RMK A01 T01780179  RH  100%=      5-min Rain = 0
KLA1 210842Z 11005KT 18/18 A299 RMK A01 T01790179  RH  100%=      5-min Rain = 0
KLA1 210843Z 12006KT 18/18 A299 RMK A01 T01780179  RH  100%=      5-min Rain = 0
KLA1 210844Z 11005KT 18/18 A299 RMK A01 T01790179  RH  100%=      5-min Rain = 0
KLA1 210845Z 12006KT 18/18 A299 RMK A01 T01790179  RH  100%=      5-min Rain = 0
KLA1 210846Z 11004KT 18/18 A299 RMK A01 T01790179  RH  100%=      5-min Rain = 0
KLA1 210847Z 12005KT 18/18 A299 RMK A01 T01790179  RH  100%=      5-min Rain = 0
KLA1 210848Z 12006KT 18/18 A2989 RMK A01 T01790179  RH  100%=      5-min Rain = 0
KLA1 210849Z 12005KT 18/18 A2989 RMK A01 T01790179  RH  100%=      5-min Rain = 0
KLA1 210850Z 12005KT 18/18 A2989 RMK A01 T01790179  RH  100%=      5-min Rain = 0
KLA1 210851Z 11006KT 18/18 A2989 RMK A01 T01790179  RH  100%=      5-min Rain = 0
KLA1 210852Z 11006KT 18/18 A2989 RMK A01 T01790179  RH  100%=      5-min Rain = 0
KLA1 210853Z 12006KT 18/18 A2989 RMK A01 T01790179  RH  100%=      5-min Rain = 0
KLA1 210854Z 12004KT 18/18 A2989 RMK A01 T01790180  RH  100%=      5-min Rain = 0
KLA1 210855Z 12005KT 18/18 A2989 RMK A01 T01790179  RH  100%=      5-min Rain = 0
KLA1 210856Z 12005KT 18/18 A2989 RMK A01 T01790180  RH  100%=      5-min Rain = 0
KLA1 210857Z 12005KT 18/18 A2989 RMK A01 T01790179  RH  100%=      5-min Rain = 0
KLA1 210858Z 12005KT 18/18 A2989 RMK A01 T01790179  RH  100%=      5-min Rain = 0
KLA1 210859Z 12006KT 18/18 A2989 RMK A01 T01790180  RH  100%=      5-min Rain = 0
KLA1 210900Z 13005KT 18/18 A2989 RMK A01 T01790180  RH  100%=      5-min Rain = 0
KLA1 210901Z 13005KT 18/18 A2989 RMK A01 T01800180  RH  100%=      5-min Rain = 0
KLA1 210902Z 12004KT 18/18 A2989 RMK A01 T01800180  RH  100%=      5-min Rain = 0
KLA1 210903Z 12005KT 18/18 A299 RMK A01 T01800180  RH  100%=      5-min Rain = 0
KLA1 210904Z 12006KT 18/18 A299 RMK A01 T01800179  RH  100%=      5-min Rain = 0
KLA1 210905Z 13006KT 18/18 A299 RMK A01 T01800180  RH  100%=      5-min Rain = 0
KLA1 210906Z 12005KT 18/18 A2989 RMK A01 T01800180  RH  100%=      5-min Rain = 0
KLA1 210907Z 12006KT 18/18 A2989 RMK A01 T01800180  RH  100%=      5-min Rain = 0
KLA1 210908Z 12006KT 18/18 A2989 RMK A01 T01800180  RH  100%=      5-min Rain = 0
KLA1 210909Z 12004KT 18/18 A2989 RMK A01 T01800179  RH  100%=      5-min Rain = 0
KLA1 210910Z 11005KT 18/18 A2989 RMK A01 T01800179  RH  100%=      5-min Rain = 0
KLA1 210911Z 13006KT 18/18 A2989 RMK A01 T01800179  RH  099%=      5-min Rain = 0
KLA1 210912Z 12005KT 18/18 A2989 RMK A01 T01800179  RH  099%=      5-min Rain = 0
KLA1 210913Z 12006KT 18/18 A2989 RMK A01 T01800179  RH  099%=      5-min Rain = 0
KLA1 210914Z 12005KT 18/18 A2989 RMK A01 T01800178  RH  099%=      5-min Rain = 0
KLA1 210915Z 13006KT 18/18 A2989 RMK A01 T01800178  RH  099%=      5-min Rain = 0
KLA1 210916Z 11006KT 18/18 A2989 RMK A01 T01800178  RH  099%=      5-min Rain = 0
KLA1 210917Z 12007KT 18/18 A2989 RMK A01 T01800178  RH  099%=      5-min Rain = 0
KLA1 210918Z 12006KT 18/18 A2989 RMK A01 T01800178  RH  099%=      5-min Rain = 0
KLA1 210919Z 12005KT 18/18 A2989 RMK A01 T01800178  RH  098%=      5-min Rain = 0
KLA1 210920Z 12006KT 18/18 A2989 RMK A01 T01800178  RH  098%=      5-min Rain = 0
KLA1 210921Z 12005KT 18/18 A2989 RMK A01 T01800177  RH  098%=      5-min Rain = 0
KLA1 210922Z 12006KT 18/18 A2989 RMK A01 T01800177  RH  098%=      5-min Rain = 0
KLA1 210923Z 12006KT 18/18 A2989 RMK A01 T01800177  RH  098%=      5-min Rain = 0
KLA1 210924Z 12006KT 18/18 A2989 RMK A01 T01800177  RH  098%=      5-min Rain = 0
KLA1 210925Z 12005KT 18/18 A2989 RMK A01 T01800177  RH  098%=      5-min Rain = 0
KLA1 210926Z 12006KT 18/18 A2989 RMK A01 T01800177  RH  098%=      5-min Rain = 0
KLA1 210927Z 12006KT 18/18 A299 RMK A01 T01800177  RH  098%=      5-min Rain = 0
KLA1 210928Z 12006KT 18/18 A299 RMK A01 T01800177  RH  098%=      5-min Rain = 0
KLA1 210929Z 12006KT 18/18 A2989 RMK A01 T01800176  RH  098%=      5-min Rain = 0
KLA1 210930Z 12007KT 18/18 A2989 RMK A01 T01800176  RH  097%=      5-min Rain = 0
KLA1 210931Z 11007KT 18/18 A2989 RMK A01 T01810176  RH  097%=      5-min Rain = 0
KLA1 210932Z 12006KT 18/18 A2989 RMK A01 T01810176  RH  097%=      5-min Rain = 0
KLA1 210933Z 10006KT 18/18 A2989 RMK A01 T01810176  RH  097%=      5-min Rain = 0
KLA1 210934Z 12007KT 18/18 A2989 RMK A01 T01810176  RH  097%=      5-min Rain = 0
KLA1 210935Z 11007KT 18/18 A2989 RMK A01 T01810176  RH  097%=      5-min Rain = 0
KLA1 210936Z 12007KT 18/18 A299 RMK A01 T01810175  RH  097%=      5-min Rain = 0
KLA1 210937Z 12006KT 18/18 A299 RMK A01 T01810175  RH  097%=      5-min Rain = 0
KLA1 210938Z 12006KT 18/18 A299 RMK A01 T01810175  RH  096%=      5-min Rain = 0
KLA1 210939Z 12006KT 18/18 A299 RMK A01 T01810175  RH  097%=      5-min Rain = 0
KLA1 210940Z 12006KT 18/18 A2989 RMK A01 T01810175  RH  096%=      5-min Rain = 0
KLA1 210941Z 12006KT 18/18 A2989 RMK A01 T01810175  RH  097%=      5-min Rain = 0
KLA1 210942Z 12007KT 18/18 A2989 RMK A01 T01810175  RH  096%=      5-min Rain = 0
KLA1 210943Z 12006KT 18/17 A2989 RMK A01 T01810174  RH  096%=      5-min Rain = 0
KLA1 210944Z 12006KT 18/17 A2989 RMK A01 T01810174  RH  096%=      5-min Rain = 0
KLA1 210945Z 12005KT 18/17 A2989 RMK A01 T01810174  RH  096%=      5-min Rain = 0
KLA1 210946Z 12006KT 18/17 A2989 RMK A01 T01810174  RH  096%=      5-min Rain = 0
KLA1 210947Z 12007KT 18/17 A2989 RMK A01 T01810174  RH  096%=      5-min Rain = 0
KLA1 210948Z 12006KT 18/17 A2989 RMK A01 T01810174  RH  096%=      5-min Rain = 0
KLA1 210949Z 12006KT 18/18 A2989 RMK A01 T01810175  RH  096%=      5-min Rain = 0
KLA1 210950Z 12008KT 18/17 A2989 RMK A01 T01810174  RH  096%=      5-min Rain = 0
KLA1 210951Z 12007KT 18/17 A2989 RMK A01 T01810174  RH  096%=      5-min Rain = 0
KLA1 210952Z 11007KT 18/17 A2989 RMK A01 T01810174  RH  096%=      5-min Rain = 0
KLA1 210953Z 12006KT 18/17 A2989 RMK A01 T01810173  RH  095%=      5-min Rain = 0
KLA1 210954Z 11006KT 18/17 A2989 RMK A01 T01810173  RH  095%=      5-min Rain = 0
KLA1 210955Z 12008KT 18/17 A2989 RMK A01 T01810173  RH  095%=      5-min Rain = 0
KLA1 210956Z 12006KT 18/17 A2989 RMK A01 T01810173  RH  095%=      5-min Rain = 0
KLA1 210957Z 12007KT 18/17 A2989 RMK A01 T01810173  RH  095%=      5-min Rain = 0
KLA1 210958Z 12005KT 18/17 A2989 RMK A01 T01810174  RH  096%=      5-min Rain = 0
KLA1 210959Z 12008KT 18/17 A2989 RMK A01 T01810174  RH  096%=      5-min Rain = 0
KLA1 211000Z 11008KT 18/17 A2989 RMK A01 T01810173  RH  095%=      5-min Rain = 0
KLA1 211001Z 12008KT 18/17 A2989 RMK A01 T01810173  RH  095%=      5-min Rain = 0
KLA1 211002Z 12009KT 18/17 A2989 RMK A01 T01810172  RH  095%=      5-min Rain = 0
KLA1 211003Z 11008KT 18/17 A2989 RMK A01 T01810172  RH  095%=      5-min Rain = 0
KLA1 211004Z 12007KT 18/17 A2989 RMK A01 T01810172  RH  095%=      5-min Rain = 0
KLA1 211005Z 12007KT 18/17 A2989 RMK A01 T01810172  RH  095%=      5-min Rain = 0
KLA1 211006Z 11008KT 18/17 A2989 RMK A01 T01810172  RH  095%=      5-min Rain = 0
KLA1 211007Z 12008KT 18/17 A2989 RMK A01 T01810172  RH  095%=      5-min Rain = 0
KLA1 211008Z 11007KT 18/17 A2989 RMK A01 T01810172  RH  095%=      5-min Rain = 0
KLA1 211009Z 11007KT 18/17 A2989 RMK A01 T01810172  RH  095%=      5-min Rain = 0
KLA1 211010Z 11007KT 18/17 A2989 RMK A01 T01810173  RH  095%=      5-min Rain = 0
KLA1 211011Z 11008KT 18/17 A2989 RMK A01 T01810172  RH  095%=      5-min Rain = 0
KLA1 211012Z 12007KT 18/17 A2989 RMK A01 T01810172  RH  095%=      5-min Rain = 0
KLA1 211013Z 11008KT 18/17 A2989 RMK A01 T01810172  RH  095%=      5-min Rain = 0
KLA1 211014Z 11005KT 18/17 A2989 RMK A01 T01810172  RH  095%=      5-min Rain = 0
KLA1 211015Z 11006KT 18/17 A2989 RMK A01 T01810172  RH  095%=      5-min Rain = 0
KLA1 211016Z 10006KT 18/17 A2989 RMK A01 T01810172  RH  095%=      5-min Rain = 0
KLA1 211017Z 11006KT 18/17 A299 RMK A01 T01810172  RH  095%=      5-min Rain = 0
KLA1 211018Z 11008KT 18/17 A2989 RMK A01 T01810172  RH  095%=      5-min Rain = 0
KLA1 211019Z 11007KT 18/17 A2989 RMK A01 T01810172  RH  095%=      5-min Rain = 0
KLA1 211020Z 11005KT 18/17 A2989 RMK A01 T01810172  RH  094%=      5-min Rain = 0
KLA1 211021Z 11007KT 18/17 A2989 RMK A01 T01810172  RH  094%=      5-min Rain = 0
KLA1 211022Z 11006KT 18/17 A2989 RMK A01 T01810172  RH  094%=      5-min Rain = 0
KLA1 211023Z 11006KT 18/17 A2989 RMK A01 T01810172  RH  095%=      5-min Rain = 0
KLA1 211024Z 11006KT 18/17 A2989 RMK A01 T01810172  RH  095%=      5-min Rain = 0
KLA1 211025Z 11005KT 18/17 A2989 RMK A01 T01810172  RH  095%=      5-min Rain = 0
KLA1 211026Z 11007KT 18/17 A2989 RMK A01 T01810172  RH  095%=      5-min Rain = 0
KLA1 211027Z 12006KT 18/17 A2989 RMK A01 T01810172  RH  095%=      5-min Rain = 0
KLA1 211028Z 11006KT 18/17 A2989 RMK A01 T01810172  RH  095%=      5-min Rain = 0
KLA1 211029Z 12008KT 18/17 A2989 RMK A01 T01810172  RH  095%=      5-min Rain = 0
KLA1 211030Z 12006KT 18/17 A2989 RMK A01 T01810173  RH  095%=      5-min Rain = 0
KLA1 211031Z 12006KT 18/17 A2989 RMK A01 T01810172  RH  095%=      5-min Rain = 0
KLA1 211032Z 12008KT 18/17 A2989 RMK A01 T01800172  RH  095%=      5-min Rain = 0
KLA1 211033Z 12008KT 18/17 A2989 RMK A01 T01800172  RH  095%=      5-min Rain = 0
KLA1 211034Z 12007KT 18/17 A2989 RMK A01 T01800172  RH  095%=      5-min Rain = 0
KLA1 211035Z 11006KT 18/17 A2989 RMK A01 T01800172  RH  095%=      5-min Rain = 0
KLA1 211036Z 12008KT 18/17 A2989 RMK A01 T01800172  RH  095%=      5-min Rain = 0
KLA1 211037Z 12007KT 18/17 A2989 RMK A01 T01800173  RH  095%=      5-min Rain = 0
KLA1 211038Z 12007KT 18/17 A2989 RMK A01 T01800172  RH  095%=      5-min Rain = 0
KLA1 211039Z 13008KT 18/17 A2989 RMK A01 T01800173  RH  095%=      5-min Rain = 0
KLA1 211040Z 12008KT 18/17 A2989 RMK A01 T01800173  RH  095%=      5-min Rain = 0
KLA1 211041Z 11006KT 18/17 A2989 RMK A01 T01800173  RH  096%=      5-min Rain = 0
KLA1 211042Z 12006KT 18/17 A2989 RMK A01 T01800173  RH  096%=      5-min Rain = 0
KLA1 211043Z 12007KT 18/17 A2989 RMK A01 T01800173  RH  096%=      5-min Rain = 0
KLA1 211044Z 11007KT 18/17 A2989 RMK A01 T01800173  RH  096%=      5-min Rain = 0
KLA1 211045Z 12008KT 18/17 A2989 RMK A01 T01800173  RH  096%=      5-min Rain = 0
KLA1 211046Z 12006KT 18/17 A2989 RMK A01 T01800173  RH  096%=      5-min Rain = 0
KLA1 211047Z 12006KT 18/17 A2989 RMK A01 T01800174  RH  096%=      5-min Rain = 0
KLA1 211048Z 12007KT 18/17 A2989 RMK A01 T01800173  RH  096%=      5-min Rain = 0
KLA1 211049Z 13008KT 18/17 A2989 RMK A01 T01800173  RH  096%=      5-min Rain = 0
KLA1 211050Z 12008KT 18/17 A2989 RMK A01 T01800173  RH  096%=      5-min Rain = 0
KLA1 211051Z 13008KT 18/17 A2989 RMK A01 T01800173  RH  096%=      5-min Rain = 0
KLA1 211052Z 12006KT 18/17 A2989 RMK A01 T01800173  RH  096%=      5-min Rain = 0
KLA1 211053Z 12007KT 18/17 A2989 RMK A01 T01800173  RH  096%=      5-min Rain = 0
KLA1 211054Z 12007KT 18/17 A2989 RMK A01 T01800173  RH  096%=      5-min Rain = 0
KLA1 211055Z 12006KT 18/17 A2989 RMK A01 T01800173  RH  096%=      5-min Rain = 0
KLA1 211056Z 12005KT 18/17 A2989 RMK A01 T01800173  RH  096%=      5-min Rain = 0
KLA1 211057Z 12004KT 18/17 A2989 RMK A01 T01800173  RH  096%=      5-min Rain = 0
KLA1 211058Z 11005KT 18/17 A2989 RMK A01 T01800174  RH  096%=      5-min Rain = 0
KLA1 211059Z 11004KT 18/17 A2989 RMK A01 T01800174  RH  096%=      5-min Rain = 0
KLA1 211100Z 11006KT 18/17 A2989 RMK A01 T01800174  RH  096%=      5-min Rain = 0
KLA1 211101Z 11005KT 18/17 A2989 RMK A01 T01800174  RH  096%=      5-min Rain = 0
KLA1 211102Z 11005KT 18/17 A2989 RMK A01 T01800174  RH  096%=      5-min Rain = 0
KLA1 211103Z 12008KT 18/17 A2989 RMK A01 T01800174  RH  096%=      5-min Rain = 0
KLA1 211104Z 14007KT 18/17 A2989 RMK A01 T01800174  RH  096%=      5-min Rain = 0
KLA1 211105Z 11004KT 18/17 A2989 RMK A01 T01800174  RH  096%=      5-min Rain = 0
KLA1 211106Z 11003KT 18/17 A2989 RMK A01 T01800174  RH  096%=      5-min Rain = 0
KLA1 211107Z 14005KT 18/17 A299 RMK A01 T01800174  RH  096%=      5-min Rain = 0
KLA1 211108Z 11005KT 18/17 A299 RMK A01 T01800174  RH  096%=      5-min Rain = 0
KLA1 211109Z 11005KT 18/17 A299 RMK A01 T01800174  RH  096%=      5-min Rain = 0
KLA1 211110Z 12010KT 18/17 A299 RMK A01 T01800174  RH  096%=      5-min Rain = 0
KLA1 211111Z 17008G14KT 18/17 A2989 RMK A01 T01800174  RH  096%=      5-min Rain = 0
KLA1 211112Z 12006KT 18/17 A2989 RMK A01 T01800174  RH  096%=      5-min Rain = 0
KLA1 211113Z 10007KT 18/17 A2989 RMK A01 T01800174  RH  096%=      5-min Rain = 0
KLA1 211114Z 10005KT 18/17 A2989 RMK A01 T01800174  RH  096%=      5-min Rain = 0
KLA1 211115Z 11005KT 18/17 A2989 RMK A01 T01800174  RH  096%=      5-min Rain = 0
KLA1 211116Z 12005KT 18/17 A2989 RMK A01 T01800174  RH  096%=      5-min Rain = 0
KLA1 211117Z 12005KT 18/17 A2989 RMK A01 T01800174  RH  096%=      5-min Rain = 0
KLA1 211118Z 11006KT 18/17 A299 RMK A01 T01800174  RH  096%=      5-min Rain = 0
KLA1 211119Z 11005KT 18/17 A299 RMK A01 T01800174  RH  096%=      5-min Rain = 0
KLA1 211120Z 11004KT 18/18 A299 RMK A01 T01800175  RH  096%=      5-min Rain = 0
KLA1 211121Z 12006KT 18/17 A299 RMK A01 T01800174  RH  096%=      5-min Rain = 0
KLA1 211122Z 13005KT 18/18 A299 RMK A01 T01800175  RH  097%=      5-min Rain = 0
KLA1 211123Z 11006KT 18/18 A299 RMK A01 T01800175  RH  097%=      5-min Rain = 0
KLA1 211124Z 11007KT 18/18 A299 RMK A01 T01800175  RH  097%=      5-min Rain = 0
KLA1 211125Z 12006KT 18/18 A299 RMK A01 T01800175  RH  097%=      5-min Rain = 0
KLA1 211126Z 12006KT 18/18 A299 RMK A01 T01800175  RH  097%=      5-min Rain = 0
KLA1 211127Z 11004KT 18/18 A299 RMK A01 T01800175  RH  097%=      5-min Rain = 0
KLA1 211128Z 11005KT 18/18 A299 RMK A01 T01800175  RH  097%=      5-min Rain = 0
KLA1 211129Z 11005KT 18/18 A299 RMK A01 T01800175  RH  097%=      5-min Rain = 0
KLA1 211130Z 12006KT 18/18 A299 RMK A01 T01800175  RH  097%=      5-min Rain = 0
KLA1 211131Z 11006KT 18/18 A299 RMK A01 T01800175  RH  097%=      5-min Rain = 0
KLA1 211132Z 11005KT 18/18 A299 RMK A01 T01800175  RH  097%=      5-min Rain = 0
KLA1 211133Z 11006KT 18/18 A299 RMK A01 T01800175  RH  097%=      5-min Rain = 0
KLA1 211134Z 11005KT 18/18 A299 RMK A01 T01800175  RH  097%=      5-min Rain = 0
KLA1 211135Z 11005KT 18/18 A299 RMK A01 T01800175  RH  097%=      5-min Rain = 0
KLA1 211136Z 11004KT 18/18 A299 RMK A01 T01800175  RH  097%=      5-min Rain = 0
KLA1 211137Z 11003KT 18/18 A299 RMK A01 T01800176  RH  097%=      5-min Rain = 0
KLA1 211138Z 11005KT 18/18 A299 RMK A01 T01800175  RH  097%=      5-min Rain = 0
KLA1 211139Z 11005KT 18/18 A299 RMK A01 T01800175  RH  097%=      5-min Rain = 0
KLA1 211140Z 11005KT 18/18 A299 RMK A01 T01800175  RH  097%=      5-min Rain = 0
KLA1 211141Z 12006KT 18/18 A299 RMK A01 T01800176  RH  097%=      5-min Rain = 0
KLA1 211142Z 14008KT 18/18 A299 RMK A01 T01800176  RH  097%=      5-min Rain = 0
KLA1 211143Z 13005KT 18/18 A299 RMK A01 T01800177  RH  098%=      5-min Rain = 0
KLA1 211144Z 13005KT 18/18 A2991 RMK A01 T01800176  RH  098%=      5-min Rain = 0
KLA1 211145Z 12005KT 18/18 A2991 RMK A01 T01800176  RH  098%=      5-min Rain = 0
KLA1 211146Z 13005KT 18/18 A2991 RMK A01 T01800176  RH  097%=      5-min Rain = 0
KLA1 211147Z 12004KT 18/18 A2991 RMK A01 T01800176  RH  097%=      5-min Rain = 0
KLA1 211148Z 12008KT 18/18 A2991 RMK A01 T01800175  RH  097%=      5-min Rain = 0
KLA1 211149Z 13006KT 18/18 A2991 RMK A01 T01810176  RH  097%=      5-min Rain = 0
KLA1 211150Z 14006KT 18/18 A2991 RMK A01 T01800176  RH  097%=      5-min Rain = 0
KLA1 211151Z 12005KT 18/18 A2991 RMK A01 T01800176  RH  097%=      5-min Rain = 0
KLA1 211152Z 13003KT 18/18 A2991 RMK A01 T01800176  RH  097%=      5-min Rain = 0
KLA1 211153Z 13004KT 18/18 A2991 RMK A01 T01800176  RH  097%=      5-min Rain = 0
KLA1 211154Z 14005KT 18/18 A2991 RMK A01 T01800177  RH  098%=      5-min Rain = 0
KLA1 211155Z 13006KT 18/18 A2991 RMK A01 T01800177  RH  098%=      5-min Rain = 0
KLA1 211156Z 15006KT 18/18 A2991 RMK A01 T01800177  RH  098%=      5-min Rain = 0
KLA1 211157Z 14006KT 18/18 A2991 RMK A01 T01800177  RH  098%=      5-min Rain = 0
KLA1 211158Z 15006KT 18/18 A2991 RMK A01 T01800177  RH  098%=      5-min Rain = 0
KLA1 211159Z 11004KT 18/18 A2991 RMK A01 T01800177  RH  098%=      5-min Rain = 0
KLA1 211200Z 15006KT 18/18 A2991 RMK A01 T01800177  RH  098%=      5-min Rain = 0
KLA1 211201Z 14006KT 18/18 A2991 RMK A01 T01800177  RH  098%=      5-min Rain = 0
KLA1 211202Z 14004KT 18/18 A2991 RMK A01 T01810177  RH  098%=      5-min Rain = 0
KLA1 211203Z 14003KT 18/18 A2991 RMK A01 T01810177  RH  098%=      5-min Rain = 0
KLA1 211204Z 13004KT 18/18 A2991 RMK A01 T01810177  RH  098%=      5-min Rain = 0
KLA1 211205Z 13004KT 18/18 A2991 RMK A01 T01810177  RH  098%=      5-min Rain = 0
KLA1 211206Z 13004KT 18/18 A2991 RMK A01 T01810177  RH  098%=      5-min Rain = 0
KLA1 211207Z 13005KT 18/18 A2991 RMK A01 T01800177  RH  098%=      5-min Rain = 0
KLA1 211208Z 14006KT 18/18 A2991 RMK A01 T01800177  RH  098%=      5-min Rain = 0
KLA1 211209Z 14006KT 18/18 A2991 RMK A01 T01800178  RH  098%=      5-min Rain = 0
KLA1 211210Z 14007KT 18/18 A2991 RMK A01 T01800178  RH  098%=      5-min Rain = 0
KLA1 211211Z 15007KT 18/18 A2991 RMK A01 T01800178  RH  098%=      5-min Rain = 0
KLA1 211212Z 13006KT 18/18 A2991 RMK A01 T01800178  RH  098%=      5-min Rain = 0
KLA1 211213Z 14006KT 18/18 A2991 RMK A01 T01800177  RH  098%=      5-min Rain = 0
KLA1 211214Z 15007KT 18/18 A2991 RMK A01 T01800178  RH  098%=      5-min Rain = 0
KLA1 211215Z 13008KT 18/18 A2991 RMK A01 T01800178  RH  098%=      5-min Rain = 0
KLA1 211216Z 14007KT 18/18 A2991 RMK A01 T01800178  RH  098%=      5-min Rain = 0
KLA1 211217Z 14007KT 18/18 A2991 RMK A01 T01810178  RH  098%=      5-min Rain = 0
KLA1 211218Z 14007KT 18/18 A2991 RMK A01 T01810178  RH  098%=      5-min Rain = 0
KLA1 211219Z 14006KT 18/18 A2991 RMK A01 T01810178  RH  098%=      5-min Rain = 0
KLA1 211220Z 14006KT 18/18 A2991 RMK A01 T01810178  RH  098%=      5-min Rain = 0
KLA1 211221Z 14004KT 18/18 A2991 RMK A01 T01810178  RH  098%=      5-min Rain = 0
KLA1 211222Z 13004KT 18/18 A2991 RMK A01 T01810178  RH  098%=      5-min Rain = 0
KLA1 211223Z 13004KT 18/18 A2992 RMK A01 T01800178  RH  099%=      5-min Rain = 0
KLA1 211224Z 14006KT 18/18 A2992 RMK A01 T01800178  RH  099%=      5-min Rain = 0
KLA1 211225Z 15005KT 18/18 A2992 RMK A01 T01800179  RH  099%=      5-min Rain = 0
KLA1 211226Z 14004KT 18/18 A2992 RMK A01 T01800178  RH  099%=      5-min Rain = 0
KLA1 211227Z 13005KT 18/18 A2992 RMK A01 T01800179  RH  099%=      5-min Rain = 0
KLA1 211228Z 13003KT 18/18 A2992 RMK A01 T01800178  RH  099%=      5-min Rain = 0
KLA1 211229Z 13003KT 18/18 A2992 RMK A01 T01800178  RH  099%=      5-min Rain = 0
KLA1 211230Z 14005KT 18/18 A2992 RMK A01 T01800179  RH  099%=      5-min Rain = 0
KLA1 211231Z 14005KT 18/18 A2992 RMK A01 T01800179  RH  099%=      5-min Rain = 0
KLA1 211232Z 14006KT 18/18 A2992 RMK A01 T01800179  RH  100%=      5-min Rain = 0
KLA1 211233Z 14004KT 18/18 A2992 RMK A01 T01800179  RH  100%=      5-min Rain = 0
KLA1 211234Z 14004KT 18/18 A2992 RMK A01 T01800179  RH  099%=      5-min Rain = 0
KLA1 211235Z 13004KT 18/18 A2992 RMK A01 T01800179  RH  099%=      5-min Rain = 0
KLA1 211236Z 13004KT 18/18 A2992 RMK A01 T01800179  RH  099%=      5-min Rain = 0
KLA1 211237Z 14004KT 18/18 A2992 RMK A01 T01800179  RH  100%=      5-min Rain = 0
KLA1 211238Z 14005KT 18/18 A2992 RMK A01 T01800179  RH  100%=      5-min Rain = 0
KLA1 211239Z 13006KT 18/18 A2992 RMK A01 T01790179  RH  100%=      5-min Rain = 0
KLA1 211240Z 13006KT 18/18 A2992 RMK A01 T01790179  RH  100%=      5-min Rain = 0
KLA1 211241Z 13004KT 18/18 A2992 RMK A01 T01790179  RH  100%=      5-min Rain = 0
KLA1 211242Z 14007KT 18/18 A2992 RMK A01 T01790179  RH  100%=      5-min Rain = 0
KLA1 211243Z 14005KT 18/18 A2992 RMK A01 T01790179  RH  100%=      5-min Rain = 0
KLA1 211244Z 14004KT 18/18 A2992 RMK A01 T01790179  RH  100%=      5-min Rain = 0
KLA1 211245Z 14005KT 18/18 A2992 RMK A01 T01790179  RH  100%=      5-min Rain = 0
KLA1 211246Z 13005KT 18/18 A2992 RMK A01 T01790179  RH  100%=      5-min Rain = 0
KLA1 211247Z 14005KT 18/18 A2992 RMK A01 T01790179  RH  100%=      5-min Rain = 0
KLA1 211248Z 14006KT 18/18 A2992 RMK A01 T01790179  RH  100%=      5-min Rain = 0
KLA1 211249Z 13007KT 18/18 A2992 RMK A01 T01790179  RH  100%=      5-min Rain = 0
KLA1 211250Z 13005KT 18/18 A2992 RMK A01 T01790179  RH  100%=      5-min Rain = 0
KLA1 211251Z 13006KT 18/18 A2993 RMK A01 T01790179  RH  100%=      5-min Rain = 0
KLA1 211252Z 13004KT 18/18 A2993 RMK A01 T01800179  RH  100%=      5-min Rain = 0
KLA1 211253Z 14004KT 18/18 A2993 RMK A01 T01790179  RH  100%=      5-min Rain = 0
KLA1 211254Z 14004KT 18/18 A2993 RMK A01 T01790179  RH  100%=      5-min Rain = 0
KLA1 211255Z 13004KT 18/18 A2993 RMK A01 T01790179  RH  100%=      5-min Rain = 0
KLA1 211256Z 12005KT 18/18 A2993 RMK A01 T01790179  RH  100%=      5-min Rain = 0
KLA1 211257Z 12005KT 18/18 A2993 RMK A01 T01790179  RH  100%=      5-min Rain = 0
KLA1 211258Z 11004KT 18/18 A2993 RMK A01 T01790179  RH  100%=      5-min Rain = 0
KLA1 211259Z 13004KT 18/18 A2993 RMK A01 T01790179  RH  100%=      5-min Rain = 0
KLA1 211300Z 12003KT 18/18 A2993 RMK A01 T01790180  RH  100%=      5-min Rain = 0
KLA1 211301Z 12003KT 18/18 A2993 RMK A01 T01790179  RH  100%=      5-min Rain = 0
KLA1 211302Z 13004KT 18/18 A2993 RMK A01 T01790179  RH  100%=      5-min Rain = 0
KLA1 211303Z 12004KT 18/18 A2993 RMK A01 T01790179  RH  100%=      5-min Rain = 0
KLA1 211304Z 12004KT 18/18 A2993 RMK A01 T01790179  RH  100%=      5-min Rain = 0
KLA1 211305Z 12005KT 18/18 A2993 RMK A01 T01790179  RH  100%=      5-min Rain = 0
KLA1 211306Z 12004KT 18/18 A2993 RMK A01 T01790179  RH  100%=      5-min Rain = 0
KLA1 211307Z 12004KT 18/18 A2993 RMK A01 T01780179  RH  100%=      5-min Rain = 0
KLA1 211308Z 12004KT 18/18 A2993 RMK A01 T01780178  RH  100%=      5-min Rain = 0
KLA1 211309Z 12004KT 18/18 A2993 RMK A01 T01780179  RH  100%=      5-min Rain = 0
KLA1 211310Z 11003KT 18/18 A2993 RMK A01 T01780178  RH  100%=      5-min Rain = 0
KLA1 211311Z 12004KT 18/18 A2993 RMK A01 T01780179  RH  100%=      5-min Rain = 0
KLA1 211312Z 12004KT 18/18 A2993 RMK A01 T01790179  RH  100%=      5-min Rain = 0
KLA1 211313Z 11003KT 18/18 A2993 RMK A01 T01780179  RH  100%=      5-min Rain = 0
KLA1 211314Z 12004KT 18/18 A2993 RMK A01 T01780178  RH  100%=      5-min Rain = 0
KLA1 211315Z 12003KT 18/18 A2993 RMK A01 T01790179  RH  100%=      5-min Rain = 0
KLA1 211316Z 12003KT 18/18 A2993 RMK A01 T01780179  RH  100%=      5-min Rain = 0
KLA1 211317Z 13003KT 18/18 A2993 RMK A01 T01790179  RH  100%=      5-min Rain = 0
KLA1 211318Z 14002KT 18/18 A2994 RMK A01 T01780179  RH  100%=      5-min Rain = 0
KLA1 211319Z 11003KT 18/18 A2994 RMK A01 T01790179  RH  100%=      5-min Rain = 0
KLA1 211320Z 12003KT 18/18 A2994 RMK A01 T01780179  RH  100%=      5-min Rain = 0
KLA1 211321Z 12004KT 18/18 A2994 RMK A01 T01780179  RH  100%=      5-min Rain = 0
KLA1 211322Z 12004KT 18/18 A2994 RMK A01 T01790179  RH  100%=      5-min Rain = 0
KLA1 211323Z 11003KT 18/18 A2994 RMK A01 T01790179  RH  100%=      5-min Rain = 0
KLA1 211324Z 13003KT 18/18 A2994 RMK A01 T01780179  RH  100%=      5-min Rain = 0
KLA1 211325Z 12003KT 18/18 A2994 RMK A01 T01780179  RH  100%=      5-min Rain = 0
KLA1 211326Z 11003KT 18/18 A2994 RMK A01 T01780178  RH  100%=      5-min Rain = 0
KLA1 211327Z 12003KT 18/18 A2994 RMK A01 T01790179  RH  100%=      5-min Rain = 0
KLA1 211328Z 13003KT 18/18 A2994 RMK A01 T01780179  RH  100%=      5-min Rain = 0
KLA1 211329Z 13003KT 18/18 A2994 RMK A01 T01780179  RH  100%=      5-min Rain = 0
KLA1 211330Z 14004KT 18/18 A2994 RMK A01 T01780178  RH  100%=      5-min Rain = 0
KLA1 211331Z 14003KT 18/18 A2994 RMK A01 T01780178  RH  100%=      5-min Rain = 0
KLA1 211332Z 14004KT 18/18 A2994 RMK A01 T01780178  RH  100%=      5-min Rain = 0
KLA1 211333Z 13004KT 18/18 A2994 RMK A01 T01780178  RH  100%=      5-min Rain = 0
KLA1 211334Z 13003KT 18/18 A2994 RMK A01 T01790179  RH  100%=      5-min Rain = 0
KLA1 211335Z 13003KT 18/18 A2994 RMK A01 T01780178  RH  100%=      5-min Rain = 0
KLA1 211336Z 14004KT 18/18 A2994 RMK A01 T01780178  RH  100%=      5-min Rain = 0
KLA1 211337Z 13003KT 18/18 A2994 RMK A01 T01780178  RH  100%=      5-min Rain = 0
KLA1 211338Z 12003KT 18/18 A2994 RMK A01 T01780178  RH  100%=      5-min Rain = 0
KLA1 211339Z 13003KT 18/18 A2994 RMK A01 T01780178  RH  100%=      5-min Rain = 0
KLA1 211340Z 13003KT 18/18 A2994 RMK A01 T01780178  RH  100%=      5-min Rain = 0
KLA1 211341Z 13002KT 18/18 A2994 RMK A01 T01780178  RH  100%=      5-min Rain = 0
KLA1 211342Z 13004KT 18/18 A2994 RMK A01 T01780178  RH  100%=      5-min Rain = 0
KLA1 211343Z 14004KT 18/18 A2994 RMK A01 T01780178  RH  100%=      5-min Rain = 0
KLA1 211344Z 14004KT 18/18 A2994 RMK A01 T01780178  RH  100%=      5-min Rain = 0
KLA1 211345Z 15002KT 18/18 A2994 RMK A01 T01780178  RH  100%=      5-min Rain = 0
KLA1 211346Z 14002KT 18/18 A2994 RMK A01 T01780178  RH  100%=      5-min Rain = 0
KLA1 211347Z 14003KT 18/18 A2994 RMK A01 T01780178  RH  100%=      5-min Rain = 0
KLA1 211348Z 15004KT 18/18 A2994 RMK A01 T01780178  RH  100%=      5-min Rain = 0
KLA1 211349Z 14003KT 18/18 A2994 RMK A01 T01780178  RH  100%=      5-min Rain = 0
KLA1 211350Z 13003KT 18/18 A2994 RMK A01 T01770178  RH  100%=      5-min Rain = 0
KLA1 211351Z 13004KT 18/18 A2994 RMK A01 T01780178  RH  100%=      5-min Rain = 0
KLA1 211352Z 14004KT 18/18 A2994 RMK A01 T01770178  RH  100%=      5-min Rain = 0
KLA1 211353Z 13004KT 18/18 A2994 RMK A01 T01770177  RH  100%=      5-min Rain = 0
KLA1 211354Z 14003KT 18/18 A2994 RMK A01 T01780178  RH  100%=      5-min Rain = 0
KLA1 211355Z 14004KT 18/18 A2994 RMK A01 T01780178  RH  100%=      5-min Rain = 0
KLA1 211356Z 13004KT 18/18 A2994 RMK A01 T01770178  RH  100%=      5-min Rain = 0
KLA1 211357Z 13004KT 18/18 A2994 RMK A01 T01770178  RH  100%=      5-min Rain = 0
KLA1 211358Z 13004KT 18/18 A2993 RMK A01 T01780178  RH  100%=      5-min Rain = 0
KLA1 211359Z 12004KT 18/18 A2993 RMK A01 T01780178  RH  100%=      5-min Rain = 0
KLA1 211400Z 12003KT 18/18 A2993 RMK A01 T01770178  RH  100%=      5-min Rain = 0
KLA1 211401Z 12003KT 18/18 A2993 RMK A01 T01770178  RH  100%=      5-min Rain = 0
KLA1 211402Z 12002KT 18/18 A2993 RMK A01 T01780178  RH  100%=      5-min Rain = 0
KLA1 211403Z 11003KT 18/18 A2993 RMK A01 T01780178  RH  100%=      5-min Rain = 0
KLA1 211404Z 10003KT 18/18 A2993 RMK A01 T01780178  RH  100%=      5-min Rain = 0
KLA1 211405Z 12003KT 18/18 A2993 RMK A01 T01770178  RH  100%=      5-min Rain = 0
KLA1 211406Z 11002KT 18/18 A2993 RMK A01 T01780178  RH  100%=      5-min Rain = 0
KLA1 211407Z 10003KT 18/18 A2993 RMK A01 T01780178  RH  100%=      5-min Rain = 0
KLA1 211408Z 09003KT 18/18 A2993 RMK A01 T01770178  RH  100%=      5-min Rain = 0
KLA1 211409Z 10004KT 18/18 A2993 RMK A01 T01770178  RH  100%=      5-min Rain = 0
KLA1 211410Z 10004KT 18/18 A2993 RMK A01 T01780178  RH  100%=      5-min Rain = 0
KLA1 211411Z 10003KT 18/18 A2993 RMK A01 T01780178  RH  100%=      5-min Rain = 0
KLA1 211412Z 09003KT 18/18 A2993 RMK A01 T01780178  RH  100%=      5-min Rain = 0
KLA1 211413Z 11004KT 18/18 A2993 RMK A01 T01780178  RH  100%=      5-min Rain = 0
KLA1 211414Z 10002KT 18/18 A2993 RMK A01 T01780178  RH  100%=      5-min Rain = 0
KLA1 211415Z 10003KT 18/18 A2993 RMK A01 T01780179  RH  100%=      5-min Rain = 0
KLA1 211416Z 11005KT 18/18 A2993 RMK A01 T01780179  RH  100%=      5-min Rain = 0
KLA1 211417Z 12004KT 18/18 A2994 RMK A01 T01780179  RH  100%=      5-min Rain = 0
KLA1 211418Z 11003KT 18/18 A2994 RMK A01 T01790179  RH  100%=      5-min Rain = 0
KLA1 211419Z 12003KT 18/18 A2994 RMK A01 T01790179  RH  100%=      5-min Rain = 0
KLA1 211420Z 12003KT 18/18 A2994 RMK A01 T01790179  RH  100%=      5-min Rain = 0
KLA1 211421Z 11003KT 18/18 A2994 RMK A01 T01790179  RH  100%=      5-min Rain = 0
KLA1 211422Z 11003KT 18/18 A2994 RMK A01 T01790179  RH  100%=      5-min Rain = 0
KLA1 211423Z 11003KT 18/18 A2994 RMK A01 T01800180  RH  100%=      5-min Rain = 0
KLA1 211424Z 11005KT 18/18 A2994 RMK A01 T01790180  RH  100%=      5-min Rain = 0
KLA1 211425Z 12005KT 18/18 A2994 RMK A01 T01790179  RH  100%=      5-min Rain = 0
KLA1 211426Z 12005KT 18/18 A2994 RMK A01 T01790180  RH  100%=      5-min Rain = 0
KLA1 211427Z 11004KT 18/18 A2994 RMK A01 T01790180  RH  100%=      5-min Rain = 0
KLA1 211428Z 12004KT 18/18 A2994 RMK A01 T01790179  RH  100%=      5-min Rain = 0
KLA1 211429Z 14002KT 18/18 A2994 RMK A01 T01800180  RH  100%=      5-min Rain = 0
KLA1 211430Z 13004KT 18/18 A2994 RMK A01 T01800180  RH  100%=      5-min Rain = 0
KLA1 211431Z 13004KT 18/18 A2994 RMK A01 T01800180  RH  100%=      5-min Rain = 0
KLA1 211432Z 14004KT 18/18 A2994 RMK A01 T01800180  RH  100%=      5-min Rain = 0
KLA1 211433Z 13003KT 18/18 A2994 RMK A01 T01800180  RH  100%=      5-min Rain = 0
KLA1 211434Z 13003KT 18/18 A2994 RMK A01 T01800180  RH  100%=      5-min Rain = 0
KLA1 211435Z 14005KT 18/18 A2994 RMK A01 T01800180  RH  100%=      5-min Rain = 0
KLA1 211436Z 13005KT 18/18 A2994 RMK A01 T01800181  RH  100%=      5-min Rain = 0
KLA1 211437Z 13005KT 18/18 A2994 RMK A01 T01800180  RH  100%=      5-min Rain = 0
KLA1 211438Z 13004KT 18/18 A2994 RMK A01 T01800180  RH  100%=      5-min Rain = 0
KLA1 211439Z 14005KT 18/18 A2994 RMK A01 T01800180  RH  100%=      5-min Rain = 0
KLA1 211440Z 14004KT 18/18 A2994 RMK A01 T01800180  RH  100%=      5-min Rain = 0
KLA1 211441Z 13004KT 18/18 A2994 RMK A01 T01800181  RH  100%=      5-min Rain = 0
KLA1 211442Z 13003KT 18/18 A2995 RMK A01 T01800180  RH  100%=      5-min Rain = 0
KLA1 211443Z 13003KT 18/18 A2995 RMK A01 T01810181  RH  100%=      5-min Rain = 0
KLA1 211444Z 12005KT 18/18 A2995 RMK A01 T01800181  RH  100%=      5-min Rain = 0
KLA1 211445Z 14004KT 18/18 A2995 RMK A01 T01810181  RH  100%=      5-min Rain = 0
KLA1 211446Z 13004KT 18/18 A2995 RMK A01 T01810181  RH  100%=      5-min Rain = 0
KLA1 211447Z 13005KT 18/18 A2995 RMK A01 T01810182  RH  100%=      5-min Rain = 0
KLA1 211448Z 13005KT 18/18 A2995 RMK A01 T01820182  RH  100%=      5-min Rain = 0
KLA1 211449Z 13005KT 18/18 A2995 RMK A01 T01820182  RH  100%=      5-min Rain = 0
KLA1 211450Z 13006KT 18/18 A2995 RMK A01 T01820182  RH  100%=      5-min Rain = 0
KLA1 211451Z 12005KT 18/18 A2995 RMK A01 T01820182  RH  100%=      5-min Rain = 0
KLA1 211452Z 13005KT 18/18 A2995 RMK A01 T01830182  RH  099%=      5-min Rain = 0
KLA1 211453Z 12005KT 18/18 A2995 RMK A01 T01830182  RH  099%=      5-min Rain = 0
KLA1 211454Z 13006KT 18/18 A2995 RMK A01 T01830181  RH  099%=      5-min Rain = 0
KLA1 211455Z 11005KT 18/18 A2995 RMK A01 T01830181  RH  099%=      5-min Rain = 0
KLA1 211456Z 12006KT 18/18 A2995 RMK A01 T01830181  RH  099%=      5-min Rain = 0
KLA1 211457Z 13005KT 18/18 A2995 RMK A01 T01840181  RH  099%=      5-min Rain = 0
KLA1 211458Z 13006KT 18/18 A2995 RMK A01 T01830181  RH  099%=      5-min Rain = 0
KLA1 211459Z 13005KT 18/18 A2995 RMK A01 T01830181  RH  099%=      5-min Rain = 0
KLA1 211500Z 12004KT 18/18 A2995 RMK A01 T01840181  RH  099%=      5-min Rain = 0
KLA1 211501Z 13006KT 18/18 A2995 RMK A01 T01840181  RH  098%=      5-min Rain = 0
KLA1 211502Z 13005KT 18/18 A2995 RMK A01 T01840181  RH  098%=      5-min Rain = 0
KLA1 211503Z 13005KT 18/18 A2995 RMK A01 T01840181  RH  098%=      5-min Rain = 0
KLA1 211504Z 14007KT 18/18 A2995 RMK A01 T01840181  RH  098%=      5-min Rain = 0
KLA1 211505Z 14005KT 19/18 A2995 RMK A01 T01850181  RH  098%=      5-min Rain = 0
KLA1 211506Z 14005KT 19/18 A2995 RMK A01 T01850181  RH  098%=      5-min Rain = 0
KLA1 211507Z 14006KT 19/18 A2995 RMK A01 T01850181  RH  097%=      5-min Rain = 0
KLA1 211508Z 13006KT 19/18 A2995 RMK A01 T01860181  RH  097%=      5-min Rain = 0
KLA1 211509Z 13006KT 19/18 A2995 RMK A01 T01860181  RH  097%=      5-min Rain = 0
KLA1 211510Z 13008KT 19/18 A2995 RMK A01 T01860181  RH  096%=      5-min Rain = 0
KLA1 211511Z 14005KT 19/18 A2995 RMK A01 T01860180  RH  096%=      5-min Rain = 0
KLA1 211512Z 14006KT 19/18 A2995 RMK A01 T01860180  RH  096%=      5-min Rain = 0
KLA1 211513Z 13006KT 19/18 A2995 RMK A01 T01860180  RH  096%=      5-min Rain = 0
KLA1 211514Z 13006KT 19/18 A2995 RMK A01 T01870180  RH  096%=      5-min Rain = 0
KLA1 211515Z 14005KT 19/18 A2995 RMK A01 T01870180  RH  096%=      5-min Rain = 0
KLA1 211516Z 13006KT 19/18 A2996 RMK A01 T01870180  RH  096%=      5-min Rain = 0
KLA1 211517Z 13005KT 19/18 A2996 RMK A01 T01870180  RH  096%=      5-min Rain = 0
KLA1 211518Z 14006KT 19/18 A2996 RMK A01 T01880180  RH  095%=      5-min Rain = 0
KLA1 211519Z 13005KT 19/18 A2996 RMK A01 T01880180  RH  095%=      5-min Rain = 0
KLA1 211520Z 12005KT 19/18 A2996 RMK A01 T01890180  RH  095%=      5-min Rain = 0
KLA1 211521Z 13006KT 19/18 A2996 RMK A01 T01890181  RH  095%=      5-min Rain = 0
KLA1 211522Z 13008KT 19/18 A2996 RMK A01 T01890180  RH  095%=      5-min Rain = 0
KLA1 211523Z 13006KT 19/18 A2996 RMK A01 T01890180  RH  095%=      5-min Rain = 0
KLA1 211524Z 12005KT 19/18 A2996 RMK A01 T01890180  RH  095%=      5-min Rain = 0
KLA1 211525Z 14007KT 19/18 A2996 RMK A01 T01890181  RH  095%=      5-min Rain = 0
KLA1 211526Z 14009KT 19/18 A2996 RMK A01 T01890180  RH  094%=      5-min Rain = 0
KLA1 211527Z 15008KT 19/18 A2996 RMK A01 T01890180  RH  094%=      5-min Rain = 0
KLA1 211528Z 14007KT 19/18 A2996 RMK A01 T01900179  RH  094%=      5-min Rain = 0
KLA1 211529Z 13007KT 19/18 A2996 RMK A01 T01900180  RH  093%=      5-min Rain = 0
KLA1 211530Z 13008KT 19/18 A2996 RMK A01 T01900179  RH  093%=      5-min Rain = 0
KLA1 211531Z 14009KT 19/18 A2996 RMK A01 T01910179  RH  093%=      5-min Rain = 0
KLA1 211532Z 14011KT 19/18 A2996 RMK A01 T01920178  RH  092%=      5-min Rain = 0
KLA1 211533Z 14009KT 19/18 A2996 RMK A01 T01920177  RH  091%=      5-min Rain = 0
KLA1 211534Z 15008KT 19/18 A2996 RMK A01 T01930177  RH  091%=      5-min Rain = 0
KLA1 211535Z 15008KT 19/18 A2996 RMK A01 T01930177  RH  090%=      5-min Rain = 0
KLA1 211536Z 15007KT 19/18 A2996 RMK A01 T01930177  RH  090%=      5-min Rain = 0
KLA1 211537Z 14007KT 19/18 A2996 RMK A01 T01940177  RH  090%=      5-min Rain = 0
KLA1 211538Z 13009KT 19/18 A2996 RMK A01 T01940176  RH  089%=      5-min Rain = 0
KLA1 211539Z 14009KT 19/18 A2996 RMK A01 T01940176  RH  089%=      5-min Rain = 0
KLA1 211540Z 14009KT 20/18 A2996 RMK A01 T01950176  RH  089%=      5-min Rain = 0
KLA1 211541Z 15008KT 20/18 A2996 RMK A01 T01950176  RH  089%=      5-min Rain = 0
KLA1 211542Z 14009KT 20/18 A2996 RMK A01 T01960176  RH  088%=      5-min Rain = 0
KLA1 211543Z 15009KT 20/18 A2996 RMK A01 T01950175  RH  088%=      5-min Rain = 0
KLA1 211544Z 15009KT 20/18 A2996 RMK A01 T01960176  RH  088%=      5-min Rain = 0
KLA1 211545Z 14009KT 20/18 A2996 RMK A01 T01950176  RH  089%=      5-min Rain = 0
KLA1 211546Z 15010KT 20/18 A2996 RMK A01 T01950175  RH  088%=      5-min Rain = 0
KLA1 211547Z 14009KT 20/18 A2996 RMK A01 T01950175  RH  088%=      5-min Rain = 0
KLA1 211548Z 15010KT 20/18 A2996 RMK A01 T01950175  RH  088%=      5-min Rain = 0
KLA1 211549Z 15008KT 20/18 A2996 RMK A01 T01970175  RH  087%=      5-min Rain = 0
KLA1 211550Z 15008KT 20/18 A2996 RMK A01 T01980176  RH  087%=      5-min Rain = 0
KLA1 211551Z 14008KT 20/18 A2996 RMK A01 T01990175  RH  086%=      5-min Rain = 0
KLA1 211552Z 15009KT 20/17 A2996 RMK A01 T02000174  RH  085%=      5-min Rain = 0
KLA1 211553Z 15008KT 20/17 A2996 RMK A01 T02000174  RH  085%=      5-min Rain = 0
KLA1 211554Z 15007KT 20/17 A2996 RMK A01 T02000173  RH  084%=      5-min Rain = 0
KLA1 211555Z 15010KT 20/17 A2996 RMK A01 T02010174  RH  084%=      5-min Rain = 0
KLA1 211556Z 16008KT 20/17 A2996 RMK A01 T02020173  RH  083%=      5-min Rain = 0
KLA1 211557Z 16009KT 20/17 A2996 RMK A01 T02030173  RH  083%=      5-min Rain = 0
KLA1 211558Z 16008KT 20/17 A2996 RMK A01 T02040173  RH  082%=      5-min Rain = 0
KLA1 211559Z 15006KT 21/17 A2996 RMK A01 T02050173  RH  082%=      5-min Rain = 0
KLA1 211600Z 14008KT 21/17 A2996 RMK A01 T02050173  RH  082%=      5-min Rain = 0
KLA1 211601Z 16008KT 21/17 A2996 RMK A01 T02060172  RH  081%=      5-min Rain = 0
KLA1 211602Z 16008KT 21/17 A2996 RMK A01 T02050172  RH  081%=      5-min Rain = 0
KLA1 211603Z 16008KT 21/17 A2996 RMK A01 T02060170  RH  080%=      5-min Rain = 0
KLA1 211604Z 17008KT 21/17 A2996 RMK A01 T02060171  RH  080%=      5-min Rain = 0
KLA1 211605Z 16006KT 21/17 A2996 RMK A01 T02070172  RH  080%=      5-min Rain = 0
KLA1 211606Z 14007KT 21/17 A2996 RMK A01 T02080172  RH  080%=      5-min Rain = 0
KLA1 211607Z 15006KT 21/17 A2996 RMK A01 T02090172  RH  079%=      5-min Rain = 0
KLA1 211608Z 15007KT 21/17 A2996 RMK A01 T02100172  RH  079%=      5-min Rain = 0
KLA1 211609Z 16007KT 21/17 A2996 RMK A01 T02110171  RH  078%=      5-min Rain = 0
KLA1 211610Z 14007KT 21/17 A2995 RMK A01 T02120172  RH  078%=      5-min Rain = 0
KLA1 211611Z 15009KT 21/17 A2995 RMK A01 T02130173  RH  078%=      5-min Rain = 0
KLA1 211612Z 14007KT 21/17 A2995 RMK A01 T02140172  RH  077%=      5-min Rain = 0
KLA1 211613Z 13008KT 21/17 A2995 RMK A01 T02140173  RH  077%=      5-min Rain = 0
KLA1 211614Z 14007KT 22/17 A2996 RMK A01 T02160174  RH  077%=      5-min Rain = 0
KLA1 211615Z 15006KT 22/17 A2996 RMK A01 T02180173  RH  075%=      5-min Rain = 0
KLA1 211616Z 13007KT 22/17 A2996 RMK A01 T02180172  RH  075%=      5-min Rain = 0
KLA1 211617Z 14010KT 22/17 A2996 RMK A01 T02170171  RH  075%=      5-min Rain = 0
KLA1 211618Z 16010KT 22/17 A2996 RMK A01 T02150168  RH  075%=      5-min Rain = 0
KLA1 211619Z 17009KT 21/17 A2996 RMK A01 T02140169  RH  075%=      5-min Rain = 0
KLA1 211620Z 15008KT 21/17 A2996 RMK A01 T02140171  RH  076%=      5-min Rain = 0
KLA1 211621Z 16008KT 22/17 A2996 RMK A01 T02160172  RH  076%=      5-min Rain = 0
KLA1 211622Z 16008KT 22/17 A2996 RMK A01 T02190171  RH  074%=      5-min Rain = 0
KLA1 211623Z 15010KT 22/17 A2996 RMK A01 T02200169  RH  073%=      5-min Rain = 0
KLA1 211624Z 13010KT 22/17 A2996 RMK A01 T02200168  RH  072%=      5-min Rain = 0
KLA1 211625Z 15008KT 22/17 A2996 RMK A01 T02190170  RH  073%=      5-min Rain = 0
KLA1 211626Z 15010KT 22/17 A2996 RMK A01 T02190170  RH  073%=      5-min Rain = 0
KLA1 211627Z 15009KT 22/17 A2996 RMK A01 T02190170  RH  073%=      5-min Rain = 0
KLA1 211628Z 16011KT 22/17 A2996 RMK A01 T02190169  RH  073%=      5-min Rain = 0
KLA1 211629Z 15010KT 22/17 A2996 RMK A01 T02190166  RH  072%=      5-min Rain = 0
KLA1 211630Z 16008KT 22/17 A2996 RMK A01 T02180167  RH  073%=      5-min Rain = 0
KLA1 211631Z 16007KT 22/17 A2996 RMK A01 T02180168  RH  073%=      5-min Rain = 0
KLA1 211632Z 15008KT 22/17 A2995 RMK A01 T02180168  RH  073%=      5-min Rain = 0
KLA1 211633Z 15008KT 22/17 A2995 RMK A01 T02180168  RH  073%=      5-min Rain = 0
KLA1 211634Z 15008KT 22/17 A2995 RMK A01 T02160167  RH  074%=      5-min Rain = 0
KLA1 211635Z 14007KT 22/17 A2996 RMK A01 T02150167  RH  074%=      5-min Rain = 0
KLA1 211636Z 14009KT 21/17 A2996 RMK A01 T02140168  RH  075%=      5-min Rain = 0
KLA1 211637Z 14007KT 21/17 A2996 RMK A01 T02140169  RH  075%=      5-min Rain = 0
KLA1 211638Z 14009KT 21/17 A2996 RMK A01 T02140169  RH  075%=      5-min Rain = 0
KLA1 211639Z 15009KT 22/17 A2996 RMK A01 T02160168  RH  074%=      5-min Rain = 0
KLA1 211640Z 14009KT 22/17 A2996 RMK A01 T02160167  RH  074%=      5-min Rain = 0
KLA1 211641Z 13010KT 22/17 A2996 RMK A01 T02170169  RH  074%=      5-min Rain = 0
KLA1 211642Z 14010KT 22/17 A2996 RMK A01 T02170169  RH  074%=      5-min Rain = 0
KLA1 211643Z 14009KT 22/17 A2996 RMK A01 T02170169  RH  074%=      5-min Rain = 0
KLA1 211644Z 14008KT 22/17 A2996 RMK A01 T02160168  RH  074%=      5-min Rain = 0
KLA1 211645Z 15011KT 22/17 A2996 RMK A01 T02150167  RH  074%=      5-min Rain = 0
KLA1 211646Z 14009KT 22/17 A2996 RMK A01 T02150165  RH  073%=      5-min Rain = 0
KLA1 211647Z 15008KT 22/17 A2996 RMK A01 T02160166  RH  073%=      5-min Rain = 0
KLA1 211648Z 15010KT 22/17 A2996 RMK A01 T02180165  RH  072%=      5-min Rain = 0
KLA1 211649Z 15012KT 22/16 A2995 RMK A01 T02200164  RH  070%=      5-min Rain = 0
KLA1 211650Z 16009KT 22/17 A2995 RMK A01 T02180165  RH  072%=      5-min Rain = 0
KLA1 211651Z 17007KT 22/17 A2995 RMK A01 T02150165  RH  073%=      5-min Rain = 0
KLA1 211652Z 16006KT 21/17 A2995 RMK A01 T02140166  RH  074%=      5-min Rain = 0
KLA1 211653Z 15007KT 22/17 A2995 RMK A01 T02150167  RH  074%=      5-min Rain = 0
KLA1 211654Z 15008KT 22/17 A2995 RMK A01 T02160168  RH  074%=      5-min Rain = 0
KLA1 211655Z 15006KT 22/17 A2995 RMK A01 T02160168  RH  074%=      5-min Rain = 0
KLA1 211656Z 17007KT 22/17 A2995 RMK A01 T02160168  RH  074%=      5-min Rain = 0
KLA1 211657Z 17009KT 22/17 A2995 RMK A01 T02160168  RH  074%=      5-min Rain = 0
KLA1 211658Z 17009KT 22/17 A2995 RMK A01 T02160167  RH  074%=      5-min Rain = 0
KLA1 211659Z 17009KT 22/17 A2995 RMK A01 T02150167  RH  074%=      5-min Rain = 0
KLA1 211700Z 17009KT 22/17 A2995 RMK A01 T02150167  RH  074%=      5-min Rain = 0
KLA1 211701Z 17007G12KT 21/17 A2995 RMK A01 T02140166  RH  074%=      5-min Rain = 0
KLA1 211702Z 17007KT 21/17 A2995 RMK A01 T02140166  RH  074%=      5-min Rain = 0
KLA1 211703Z 17007KT 22/16 A2995 RMK A01 T02150164  RH  073%=      5-min Rain = 0
KLA1 211704Z 17009KT 22/16 A2995 RMK A01 T02150164  RH  073%=      5-min Rain = 0
KLA1 211705Z 17009KT 22/17 A2995 RMK A01 T02160165  RH  073%=      5-min Rain = 0
KLA1 211706Z 17008KT 22/16 A2995 RMK A01 T02150164  RH  073%=      5-min Rain = 0
KLA1 211707Z 16008KT 21/16 A2995 RMK A01 T02140164  RH  073%=      5-min Rain = 0
KLA1 211708Z 18009KT 21/16 A2995 RMK A01 T02140164  RH  073%=      5-min Rain = 0
KLA1 211709Z 16009KT 22/16 A2995 RMK A01 T02160163  RH  072%=      5-min Rain = 0
KLA1 211710Z 17008KT 22/16 A2995 RMK A01 T02170163  RH  071%=      5-min Rain = 0
KLA1 211711Z 17009KT 22/16 A2995 RMK A01 T02170163  RH  071%=      5-min Rain = 0
KLA1 211712Z 18007KT 22/16 A2995 RMK A01 T02170163  RH  071%=      5-min Rain = 0
KLA1 211713Z 18008KT 22/17 A2994 RMK A01 T02160165  RH  073%=      5-min Rain = 0
KLA1 211714Z 17010KT 22/17 A2994 RMK A01 T02170165  RH  072%=      5-min Rain = 0
KLA1 211715Z 19007KT 22/16 A2994 RMK A01 T02170162  RH  071%=      5-min Rain = 0
KLA1 211716Z 19005KT 22/16 A2994 RMK A01 T02160162  RH  071%=      5-min Rain = 0
KLA1 211717Z 15006KT 22/16 A2994 RMK A01 T02150163  RH  072%=      5-min Rain = 0
KLA1 211718Z 15008KT 22/17 A2994 RMK A01 T02170165  RH  072%=      5-min Rain = 0
KLA1 211719Z 15010KT 22/17 A2994 RMK A01 T02180165  RH  072%=      5-min Rain = 0
KLA1 211720Z 16010KT 22/17 A2994 RMK A01 T02180165  RH  072%=      5-min Rain = 0
KLA1 211721Z 15011KT 22/17 A2994 RMK A01 T02170166  RH  072%=      5-min Rain = 0
KLA1 211722Z 15010KT 22/17 A2994 RMK A01 T02160166  RH  073%=      5-min Rain = 0
KLA1 211723Z 15010KT 22/17 A2994 RMK A01 T02150166  RH  074%=      5-min Rain = 0
KLA1 211724Z 15008KT 22/17 A2994 RMK A01 T02160166  RH  073%=      5-min Rain = 0
KLA1 211725Z 14007KT 22/17 A2994 RMK A01 T02170166  RH  073%=      5-min Rain = 0
KLA1 211726Z 15007KT 22/16 A2994 RMK A01 T02170164  RH  072%=      5-min Rain = 0
KLA1 211727Z 16007KT 22/17 A2994 RMK A01 T02160165  RH  072%=      5-min Rain = 0
KLA1 211728Z 16005KT 22/17 A2994 RMK A01 T02160165  RH  072%=      5-min Rain = 0
KLA1 211729Z 18006G11KT 22/17 A2994 RMK A01 T02160165  RH  072%=      5-min Rain = 0
KLA1 211730Z 17008KT 22/16 A2994 RMK A01 T02160163  RH  072%=      5-min Rain = 0
KLA1 211731Z 17008KT 22/16 A2994 RMK A01 T02160164  RH  072%=      5-min Rain = 0
KLA1 211732Z 15007KT 22/16 A2994 RMK A01 T02160164  RH  072%=      5-min Rain = 0
KLA1 211733Z 16006KT 22/16 A2994 RMK A01 T02160164  RH  072%=      5-min Rain = 0
KLA1 211734Z 16005KT 22/16 A2994 RMK A01 T02170164  RH  072%=      5-min Rain = 0
KLA1 211735Z 16005KT 22/16 A2994 RMK A01 T02180163  RH  071%=      5-min Rain = 0
KLA1 211736Z 17004KT 22/16 A2994 RMK A01 T02180163  RH  071%=      5-min Rain = 0
KLA1 211737Z 15002KT 22/16 A2993 RMK A01 T02190163  RH  071%=      5-min Rain = 0
KLA1 211738Z 13005KT 22/16 A2993 RMK A01 T02210164  RH  070%=      5-min Rain = 0
KLA1 211739Z 18010KT 22/16 A2993 RMK A01 T02230164  RH  069%=      5-min Rain = 0
KLA1 211740Z 17009KT 23/17 A2993 RMK A01 T02260165  RH  068%=      5-min Rain = 0
KLA1 211741Z 17008KT 23/16 A2993 RMK A01 T02260164  RH  068%=      5-min Rain = 0
KLA1 211742Z 18006KT 22/16 A2993 RMK A01 T02230163  RH  069%=      5-min Rain = 0
KLA1 211743Z 16007KT 22/16 A2993 RMK A01 T02210163  RH  070%=      5-min Rain = 0
KLA1 211744Z 15010KT 22/16 A2993 RMK A01 T02200163  RH  070%=      5-min Rain = 0
KLA1 211745Z 13007KT 22/16 A2993 RMK A01 T02190163  RH  070%=      5-min Rain = 0
KLA1 211746Z 13007KT 22/16 A2993 RMK A01 T02190164  RH  071%=      5-min Rain = 0
KLA1 211747Z 14005KT 22/16 A2993 RMK A01 T02180164  RH  071%=      5-min Rain = 0
KLA1 211748Z 13003KT 22/16 A2993 RMK A01 T02180163  RH  071%=      5-min Rain = 0
KLA1 211749Z 12006KT 22/16 A2993 RMK A01 T02180164  RH  071%=      5-min Rain = 0
KLA1 211750Z 12006KT 22/16 A2993 RMK A01 T02180164  RH  071%=      5-min Rain = 0
KLA1 211751Z 13006KT 22/16 A2993 RMK A01 T02180164  RH  071%=      5-min Rain = 0
KLA1 211752Z 16006KT 22/17 A2993 RMK A01 T02210165  RH  071%=      5-min Rain = 0
KLA1 211753Z 17007KT 22/16 A2993 RMK A01 T02240164  RH  069%=      5-min Rain = 0
KLA1 211754Z 16006KT 23/16 A2993 RMK A01 T02250163  RH  068%=      5-min Rain = 0
KLA1 211755Z 16007KT 23/16 A2993 RMK A01 T02260163  RH  068%=      5-min Rain = 0
KLA1 211756Z 15008KT 23/16 A2993 RMK A01 T02260164  RH  068%=      5-min Rain = 0
KLA1 211757Z 18008KT 23/16 A2993 RMK A01 T02270163  RH  067%=      5-min Rain = 0
KLA1 211758Z 17007KT 23/16 A2993 RMK A01 T02270164  RH  067%=      5-min Rain = 0
KLA1 211759Z 15009KT 23/16 A2993 RMK A01 T02270164  RH  068%=      5-min Rain = 0
KLA1 211800Z 14006KT 23/16 A2993 RMK A01 T02270164  RH  068%=      5-min Rain = 0
KLA1 211801Z 13007KT 23/16 A2993 RMK A01 T02260164  RH  068%=      5-min Rain = 0
KLA1 211802Z 13007KT 23/16 A2992 RMK A01 T02260163  RH  068%=      5-min Rain = 0
KLA1 211803Z 14007KT 23/17 A2992 RMK A01 T02280165  RH  067%=      5-min Rain = 0
KLA1 211804Z 14009KT 23/16 A2992 RMK A01 T02290164  RH  066%=      5-min Rain = 0
KLA1 211805Z 15007KT 23/16 A2992 RMK A01 T02300164  RH  066%=      5-min Rain = 0
KLA1 211806Z 18006KT 23/17 A2992 RMK A01 T02320165  RH  066%=      5-min Rain = 0
KLA1 211807Z 15006KT 23/16 A2992 RMK A01 T02340163  RH  065%=      5-min Rain = 0
KLA1 211808Z 13011KT 23/16 A2992 RMK A01 T02330163  RH  065%=      5-min Rain = 0
KLA1 211809Z 14009KT 23/16 A2992 RMK A01 T02330164  RH  065%=      5-min Rain = 0
KLA1 211810Z 13008KT 23/16 A2992 RMK A01 T02320162  RH  065%=      5-min Rain = 0
KLA1 211811Z 14009KT 23/16 A2992 RMK A01 T02310161  RH  065%=      5-min Rain = 0
KLA1 211812Z 14008KT 23/16 A2992 RMK A01 T02310163  RH  065%=      5-min Rain = 0
KLA1 211813Z 15011KT 23/16 A2992 RMK A01 T02330163  RH  065%=      5-min Rain = 0
KLA1 211814Z 16006KT 23/16 A2992 RMK A01 T02340164  RH  065%=      5-min Rain = 0
KLA1 211815Z 15006KT 23/16 A2992 RMK A01 T02340163  RH  064%=      5-min Rain = 0
KLA1 211816Z 15006KT 24/16 A2992 RMK A01 T02350163  RH  064%=      5-min Rain = 0
KLA1 211817Z 16006KT 23/16 A2992 RMK A01 T02340163  RH  064%=      5-min Rain = 0
KLA1 211818Z 15009KT 23/16 A2991 RMK A01 T02340164  RH  065%=      5-min Rain = 0
KLA1 211819Z 14009KT 24/17 A2991 RMK A01 T02350165  RH  065%=      5-min Rain = 0
KLA1 211820Z 15007KT 24/16 A2991 RMK A01 T02360164  RH  064%=      5-min Rain = 0
KLA1 211821Z 14008G13KT 24/17 A2991 RMK A01 T02370166  RH  064%=      5-min Rain = 0
KLA1 211822Z 15011KT 24/17 A2991 RMK A01 T02390165  RH  063%=      5-min Rain = 0
KLA1 211823Z 16007KT 24/17 A2991 RMK A01 T02370165  RH  064%=      5-min Rain = 0
KLA1 211824Z 14008KT 24/17 A2991 RMK A01 T02350165  RH  064%=      5-min Rain = 0
KLA1 211825Z 14008KT 23/17 A2991 RMK A01 T02340165  RH  065%=      5-min Rain = 0
KLA1 211826Z 17011KT 24/16 A2991 RMK A01 T02350164  RH  064%=      5-min Rain = 0
KLA1 211827Z 18009KT 24/16 A2991 RMK A01 T02350162  RH  064%=      5-min Rain = 0
KLA1 211828Z 17010KT 23/16 A2991 RMK A01 T02330163  RH  065%=      5-min Rain = 0
KLA1 211829Z 16009KT 23/16 A2991 RMK A01 T02340163  RH  064%=      5-min Rain = 0
KLA1 211830Z 16007KT 24/16 A2991 RMK A01 T02360163  RH  064%=      5-min Rain = 0
KLA1 211831Z 18007KT 24/16 A2991 RMK A01 T02360163  RH  064%=      5-min Rain = 0
KLA1 211832Z 14009KT 24/16 A2991 RMK A01 T02360163  RH  064%=      5-min Rain = 0
KLA1 211833Z 15008KT 23/16 A2991 RMK A01 T02340163  RH  064%=      5-min Rain = 0
KLA1 211834Z 17008KT 23/16 A2991 RMK A01 T02300162  RH  065%=      5-min Rain = 0
KLA1 211835Z 17007KT 23/16 A2991 RMK A01 T02270162  RH  067%=      5-min Rain = 0
KLA1 211836Z 14008KT 23/16 A2991 RMK A01 T02260163  RH  068%=      5-min Rain = 0
KLA1 211837Z 13010KT 23/16 A299 RMK A01 T02260163  RH  068%=      5-min Rain = 0
KLA1 211838Z 13009KT 23/16 A299 RMK A01 T02260162  RH  067%=      5-min Rain = 0
KLA1 211839Z 14007KT 23/16 A299 RMK A01 T02250162  RH  068%=      5-min Rain = 0
KLA1 211840Z 12010KT 23/16 A299 RMK A01 T02250163  RH  068%=      5-min Rain = 0
KLA1 211841Z 13010KT 23/16 A299 RMK A01 T02270163  RH  067%=      5-min Rain = 0
KLA1 211842Z 12012KT 23/16 A299 RMK A01 T02290163  RH  066%=      5-min Rain = 0
KLA1 211843Z 14012KT 23/16 A299 RMK A01 T02310162  RH  065%=      5-min Rain = 0
KLA1 211844Z 14011KT 23/16 A299 RMK A01 T02320163  RH  065%=      5-min Rain = 0
KLA1 211845Z 16013KT 24/16 A299 RMK A01 T02350164  RH  064%=      5-min Rain = 0
KLA1 211846Z 16010KT 23/16 A299 RMK A01 T02340162  RH  064%=      5-min Rain = 0
KLA1 211847Z 16009KT 23/16 A299 RMK A01 T02330163  RH  065%=      5-min Rain = 0
KLA1 211848Z 15009KT 23/16 A299 RMK A01 T02330163  RH  065%=      5-min Rain = 0
KLA1 211849Z 14008KT 23/16 A299 RMK A01 T02330162  RH  064%=      5-min Rain = 0
KLA1 211850Z 15011KT 23/16 A299 RMK A01 T02310162  RH  065%=      5-min Rain = 0
KLA1 211851Z 15010G15KT 23/16 A2989 RMK A01 T02320163  RH  065%=      5-min Rain = 0
KLA1 211852Z 14009KT 23/16 A2989 RMK A01 T02330163  RH  065%=      5-min Rain = 0
KLA1 211853Z 14010KT 23/16 A2989 RMK A01 T02330163  RH  065%=      5-min Rain = 0
KLA1 211854Z 15009KT 23/16 A2989 RMK A01 T02340163  RH  064%=      5-min Rain = 0
KLA1 211855Z 14007KT 23/16 A2989 RMK A01 T02320163  RH  065%=      5-min Rain = 0
KLA1 211856Z 15009KT 23/16 A2989 RMK A01 T02290162  RH  066%=      5-min Rain = 0
KLA1 211857Z 13009KT 23/16 A2989 RMK A01 T02270162  RH  067%=      5-min Rain = 0
KLA1 211858Z 15011KT 23/16 A2989 RMK A01 T02270163  RH  067%=      5-min Rain = 0
KLA1 211859Z 14014KT 23/16 A2989 RMK A01 T02300161  RH  065%=      5-min Rain = 0
KLA1 211900Z 15013KT 23/16 A2989 RMK A01 T02310161  RH  065%=      5-min Rain = 0
KLA1 211901Z 16014KT 23/16 A2989 RMK A01 T02330162  RH  065%=      5-min Rain = 0
KLA1 211902Z 15013KT 23/16 A2989 RMK A01 T02330163  RH  065%=      5-min Rain = 0
KLA1 211903Z 16013KT 23/16 A2989 RMK A01 T02320163  RH  065%=      5-min Rain = 0
KLA1 211904Z 15010KT 23/16 A2989 RMK A01 T02300163  RH  066%=      5-min Rain = 0
KLA1 211905Z 16007KT 23/16 A2988 RMK A01 T02300163  RH  066%=      5-min Rain = 0
KLA1 211906Z 18008KT 23/16 A2988 RMK A01 T02300164  RH  067%=      5-min Rain = 0
KLA1 211907Z 17009KT 23/16 A2988 RMK A01 T02310163  RH  066%=      5-min Rain = 0
KLA1 211908Z 16006G11KT 23/16 A2988 RMK A01 T02300164  RH  066%=      5-min Rain = 0
KLA1 211909Z 17009KT 23/16 A2988 RMK A01 T02300163  RH  066%=      5-min Rain = 0
KLA1 211910Z 16009G14KT 23/16 A2988 RMK A01 T02310163  RH  065%=      5-min Rain = 0
KLA1 211911Z 16009KT 23/16 A2988 RMK A01 T02330162  RH  064%=      5-min Rain = 0
KLA1 211912Z 16009KT 23/16 A2988 RMK A01 T02340163  RH  064%=      5-min Rain = 0
KLA1 211913Z 16006KT 24/16 A2988 RMK A01 T02350162  RH  064%=      5-min Rain = 0
KLA1 211914Z 13009G14KT 23/16 A2988 RMK A01 T02340164  RH  065%=      5-min Rain = 0
KLA1 211915Z 13010KT 24/16 A2988 RMK A01 T02350164  RH  064%=      5-min Rain = 0
KLA1 211916Z 13010KT 24/17 A2988 RMK A01 T02350165  RH  065%=      5-min Rain = 0
KLA1 211917Z 14010KT 24/16 A2988 RMK A01 T02350164  RH  064%=      5-min Rain = 0
KLA1 211918Z 13008KT 23/16 A2988 RMK A01 T02340164  RH  065%=      5-min Rain = 0
KLA1 211919Z 14010KT 23/16 A2988 RMK A01 T02330164  RH  065%=      5-min Rain = 0
KLA1 211920Z 17008KT 23/16 A2988 RMK A01 T02330164  RH  065%=      5-min Rain = 0
KLA1 211921Z 18007KT 23/16 A2987 RMK A01 T02340164  RH  065%=      5-min Rain = 0
KLA1 211922Z 15005KT 23/16 A2987 RMK A01 T02340164  RH  065%=      5-min Rain = 0
KLA1 211923Z 13009KT 23/16 A2987 RMK A01 T02340164  RH  065%=      5-min Rain = 0
KLA1 211924Z 12007G12KT 24/16 A2987 RMK A01 T02370164  RH  064%=      5-min Rain = 0
KLA1 211925Z 14009KT 24/16 A2987 RMK A01 T02370163  RH  063%=      5-min Rain = 0
KLA1 211926Z 13011KT 24/16 A2987 RMK A01 T02360163  RH  064%=      5-min Rain = 0
KLA1 211927Z 12008KT 24/16 A2987 RMK A01 T02350162  RH  063%=      5-min Rain = 0
KLA1 211928Z 14007KT 23/16 A2987 RMK A01 T02340163  RH  064%=      5-min Rain = 0
KLA1 211929Z 16009KT 24/16 A2987 RMK A01 T02360164  RH  064%=      5-min Rain = 0
KLA1 211930Z 15010KT 24/16 A2987 RMK A01 T02370162  RH  063%=      5-min Rain = 0
KLA1 211931Z 16009KT 24/16 A2987 RMK A01 T02350163  RH  064%=      5-min Rain = 0
KLA1 211932Z 15011KT 24/16 A2987 RMK A01 T02350164  RH  064%=      5-min Rain = 0
KLA1 211933Z 15009KT 24/16 A2987 RMK A01 T02350164  RH  065%=      5-min Rain = 0
KLA1 211934Z 14009KT 23/16 A2987 RMK A01 T02340164  RH  065%=      5-min Rain = 0
KLA1 211935Z 13008KT 23/16 A2987 RMK A01 T02330164  RH  065%=      5-min Rain = 0
KLA1 211936Z 13004KT 23/16 A2987 RMK A01 T02320164  RH  065%=      5-min Rain = 0
KLA1 211937Z 12008KT 23/16 A2987 RMK A01 T02320163  RH  065%=      5-min Rain = 0
KLA1 211938Z 13007KT 23/16 A2987 RMK A01 T02320163  RH  065%=      5-min Rain = 0
KLA1 211939Z 13008KT 23/16 A2987 RMK A01 T02320162  RH  065%=      5-min Rain = 0
KLA1 211940Z 12006KT 23/16 A2987 RMK A01 T02340163  RH  064%=      5-min Rain = 0
KLA1 211941Z 13007G15KT 24/16 A2987 RMK A01 T02370163  RH  063%=      5-min Rain = 0
KLA1 211942Z 13010KT 24/16 A2986 RMK A01 T02380163  RH  062%=      5-min Rain = 0
KLA1 211943Z 12010KT 24/16 A2986 RMK A01 T02370161  RH  062%=      5-min Rain = 0
KLA1 211944Z 13010KT 24/16 A2986 RMK A01 T02360162  RH  063%=      5-min Rain = 0
KLA1 211945Z 13010KT 24/16 A2986 RMK A01 T02360162  RH  063%=      5-min Rain = 0
KLA1 211946Z 13008KT 24/16 A2986 RMK A01 T02350163  RH  064%=      5-min Rain = 0
KLA1 211947Z 12006KT 24/16 A2986 RMK A01 T02360162  RH  063%=      5-min Rain = 0
KLA1 211948Z 11005KT 24/16 A2986 RMK A01 T02350162  RH  063%=      5-min Rain = 0
KLA1 211949Z 10007KT 24/16 A2986 RMK A01 T02350162  RH  064%=      5-min Rain = 0
KLA1 211950Z 13010KT 23/16 A2986 RMK A01 T02340162  RH  064%=      5-min Rain = 0
KLA1 211951Z 12007KT 24/16 A2986 RMK A01 T02350162  RH  063%=      5-min Rain = 0
KLA1 211952Z 14011KT 24/16 A2986 RMK A01 T02370162  RH  063%=      5-min Rain = 0
KLA1 211953Z 13010KT 24/16 A2986 RMK A01 T02380163  RH  063%=      5-min Rain = 0
KLA1 211954Z 13010KT 24/16 A2986 RMK A01 T02380163  RH  063%=      5-min Rain = 0
KLA1 211955Z 11007KT 24/16 A2986 RMK A01 T02380163  RH  063%=      5-min Rain = 0
KLA1 211956Z 12007KT 24/16 A2986 RMK A01 T02390163  RH  063%=      5-min Rain = 0
KLA1 211957Z 13009KT 24/16 A2986 RMK A01 T02390163  RH  062%=      5-min Rain = 0
KLA1 211958Z 13007KT 24/16 A2986 RMK A01 T02390163  RH  062%=      5-min Rain = 0
KLA1 211959Z 13008KT 24/16 A2985 RMK A01 T02400163  RH  062%=      5-min Rain = 0
KLA1 212000Z 14010KT 24/16 A2985 RMK A01 T02410162  RH  061%=      5-min Rain = 0
KLA1 212001Z 14008KT 24/16 A2985 RMK A01 T02410162  RH  061%=      5-min Rain = 0
KLA1 212002Z 14009KT 24/16 A2985 RMK A01 T02440163  RH  061%=      5-min Rain = 0
KLA1 212003Z 15009KT 24/16 A2985 RMK A01 T02430161  RH  060%=      5-min Rain = 0
KLA1 212004Z 16009KT 24/16 A2985 RMK A01 T02420161  RH  061%=      5-min Rain = 0
KLA1 212005Z 15009KT 24/16 A2985 RMK A01 T02420161  RH  061%=      5-min Rain = 0
KLA1 212006Z 15010KT 24/16 A2985 RMK A01 T02420162  RH  061%=      5-min Rain = 0
KLA1 212007Z 14010KT 24/16 A2985 RMK A01 T02410161  RH  061%=      5-min Rain = 0
KLA1 212008Z 14010KT 24/16 A2985 RMK A01 T02410161  RH  061%=      5-min Rain = 0
KLA1 212009Z 12009KT 24/16 A2985 RMK A01 T02400161  RH  061%=      5-min Rain = 0
KLA1 212010Z 13009KT 24/16 A2985 RMK A01 T02400161  RH  061%=      5-min Rain = 0
KLA1 212011Z 15008G13KT 24/16 A2985 RMK A01 T02400161  RH  061%=      5-min Rain = 0
KLA1 212012Z 16010KT 24/16 A2985 RMK A01 T02410161  RH  061%=      5-min Rain = 0
KLA1 212013Z 16009KT 24/16 A2985 RMK A01 T02410161  RH  061%=      5-min Rain = 0
KLA1 212014Z 15009KT 24/16 A2985 RMK A01 T02410161  RH  061%=      5-min Rain = 0
KLA1 212015Z 16008KT 24/16 A2985 RMK A01 T02410161  RH  061%=      5-min Rain = 0
KLA1 212016Z 15011KT 24/16 A2985 RMK A01 T02420161  RH  061%=      5-min Rain = 0
KLA1 212017Z 14010KT 24/16 A2985 RMK A01 T02430160  RH  060%=      5-min Rain = 0
KLA1 212018Z 14009KT 24/16 A2985 RMK A01 T02420161  RH  060%=      5-min Rain = 0
KLA1 212019Z 14010KT 24/16 A2985 RMK A01 T02430161  RH  060%=      5-min Rain = 0
KLA1 212020Z 15007KT 24/16 A2985 RMK A01 T02430160  RH  060%=      5-min Rain = 0
KLA1 212021Z 15009KT 24/16 A2985 RMK A01 T02420161  RH  061%=      5-min Rain = 0
KLA1 212022Z 14008KT 25/16 A2985 RMK A01 T02450161  RH  060%=      5-min Rain = 0
KLA1 212023Z 16008KT 24/16 A2985 RMK A01 T02440161  RH  060%=      5-min Rain = 0
KLA1 212024Z 15010KT 24/16 A2985 RMK A01 T02440161  RH  060%=      5-min Rain = 0
KLA1 212025Z 14009KT 24/16 A2985 RMK A01 T02440161  RH  060%=      5-min Rain = 0
KLA1 212026Z 13011KT 25/16 A2985 RMK A01 T02450160  RH  059%=      5-min Rain = 0
KLA1 212027Z 14010KT 25/16 A2985 RMK A01 T02450160  RH  059%=      5-min Rain = 0
KLA1 212028Z 14009KT 25/16 A2985 RMK A01 T02450161  RH  059%=      5-min Rain = 0
KLA1 212029Z 12010KT 25/16 A2985 RMK A01 T02470162  RH  059%=      5-min Rain = 0
KLA1 212030Z 13009KT 25/16 A2985 RMK A01 T02470160  RH  058%=      5-min Rain = 0
KLA1 212031Z 15010KT 25/16 A2984 RMK A01 T02470161  RH  059%=      5-min Rain = 0
KLA1 212032Z 15012KT 25/16 A2984 RMK A01 T02470162  RH  059%=      5-min Rain = 0
KLA1 212033Z 15010KT 25/16 A2984 RMK A01 T02450162  RH  060%=      5-min Rain = 0
KLA1 212034Z 15010KT 25/16 A2985 RMK A01 T02460162  RH  060%=      5-min Rain = 0
KLA1 212035Z 15007KT 25/16 A2985 RMK A01 T02470163  RH  060%=      5-min Rain = 0
KLA1 212036Z 13008KT 25/16 A2985 RMK A01 T02480163  RH  059%=      5-min Rain = 0
KLA1 212037Z 15009KT 25/16 A2985 RMK A01 T02480162  RH  059%=      5-min Rain = 0
KLA1 212038Z 17007KT 25/16 A2985 RMK A01 T02480162  RH  059%=      5-min Rain = 0
KLA1 212039Z 16006KT 25/16 A2985 RMK A01 T02480161  RH  059%=      5-min Rain = 0
KLA1 212040Z 15009KT 25/16 A2985 RMK A01 T02490162  RH  059%=      5-min Rain = 0
KLA1 212041Z 16011KT 25/16 A2985 RMK A01 T02510161  RH  057%=      5-min Rain = 0
KLA1 212042Z 17011KT 25/16 A2985 RMK A01 T02480158  RH  057%=      5-min Rain = 0
KLA1 212043Z 17011KT 25/16 A2985 RMK A01 T02450159  RH  059%=      5-min Rain = 0
KLA1 212044Z 16009KT 24/16 A2985 RMK A01 T02430160  RH  060%=      5-min Rain = 0
KLA1 212045Z 13009KT 24/16 A2985 RMK A01 T02440161  RH  060%=      5-min Rain = 0
KLA1 212046Z 14009KT 24/16 A2985 RMK A01 T02440162  RH  060%=      5-min Rain = 0
KLA1 212047Z 14007KT 25/16 A2985 RMK A01 T02460163  RH  060%=      5-min Rain = 0
KLA1 212048Z 15006KT 25/16 A2985 RMK A01 T02480162  RH  059%=      5-min Rain = 0
KLA1 212049Z 17008KT 25/16 A2985 RMK A01 T02490161  RH  058%=      5-min Rain = 0
KLA1 212050Z 16010KT 25/16 A2985 RMK A01 T02490161  RH  058%=      5-min Rain = 0
KLA1 212051Z 14010KT 25/16 A2985 RMK A01 T02490163  RH  059%=      5-min Rain = 0
KLA1 212052Z 14009KT 25/16 A2985 RMK A01 T02490164  RH  059%=      5-min Rain = 0
KLA1 212053Z 14007KT 25/16 A2985 RMK A01 T02470163  RH  059%=      5-min Rain = 0
KLA1 212054Z 14010KT 25/16 A2985 RMK A01 T02460164  RH  060%=      5-min Rain = 0
KLA1 212055Z 16010KT 25/16 A2985 RMK A01 T02470164  RH  060%=      5-min Rain = 0
KLA1 212056Z 17010KT 25/16 A2985 RMK A01 T02480163  RH  059%=      5-min Rain = 0
KLA1 212057Z 17010KT 25/16 A2985 RMK A01 T02480163  RH  059%=      5-min Rain = 0
KLA1 212058Z 16010KT 25/16 A2985 RMK A01 T02490163  RH  059%=      5-min Rain = 0
KLA1 212059Z 16010KT 25/16 A2985 RMK A01 T02510163  RH  058%=      5-min Rain = 0
KLA1 212100Z 15011KT 25/16 A2985 RMK A01 T02520163  RH  058%=      5-min Rain = 0
KLA1 212101Z 15011KT 25/16 A2985 RMK A01 T02500163  RH  059%=      5-min Rain = 0
KLA1 212102Z 15012KT 25/16 A2985 RMK A01 T02470162  RH  059%=      5-min Rain = 0
KLA1 212103Z 16012KT 25/16 A2985 RMK A01 T02460162  RH  059%=      5-min Rain = 0
KLA1 212104Z 16008KT 24/16 A2985 RMK A01 T02440161  RH  060%=      5-min Rain = 0
KLA1 212105Z 16008KT 24/16 A2985 RMK A01 T02440161  RH  060%=      5-min Rain = 0
KLA1 212106Z 16008KT 25/16 A2985 RMK A01 T02450161  RH  059%=      5-min Rain = 0
KLA1 212107Z 17010KT 25/16 A2985 RMK A01 T02470161  RH  059%=      5-min Rain = 0
KLA1 212108Z 15011KT 25/16 A2985 RMK A01 T02480162  RH  059%=      5-min Rain = 0
KLA1 212109Z 15013KT 25/16 A2985 RMK A01 T02460162  RH  059%=      5-min Rain = 0
KLA1 212110Z 14010KT 25/16 A2985 RMK A01 T02460164  RH  060%=      5-min Rain = 0
KLA1 212111Z 14009KT 25/17 A2985 RMK A01 T02450165  RH  061%=      5-min Rain = 0
KLA1 212112Z 15011KT 25/16 A2985 RMK A01 T02460164  RH  060%=      5-min Rain = 0
KLA1 212113Z 14011KT 25/16 A2985 RMK A01 T02460163  RH  060%=      5-min Rain = 0
KLA1 212114Z 17009KT 25/16 A2985 RMK A01 T02460164  RH  060%=      5-min Rain = 0
KLA1 212115Z 16011KT 25/16 A2985 RMK A01 T02460164  RH  060%=      5-min Rain = 0
KLA1 212116Z 15009KT 25/16 A2985 RMK A01 T02450164  RH  061%=      5-min Rain = 0
KLA1 212117Z 15010KT 24/16 A2985 RMK A01 T02440164  RH  061%=      5-min Rain = 0
KLA1 212118Z 14010KT 24/16 A2985 RMK A01 T02440164  RH  061%=      5-min Rain = 0
KLA1 212119Z 15011KT 25/16 A2985 RMK A01 T02450164  RH  061%=      5-min Rain = 0
KLA1 212120Z 15012KT 25/16 A2985 RMK A01 T02450163  RH  060%=      5-min Rain = 0
KLA1 212121Z 15012KT 24/16 A2985 RMK A01 T02430164  RH  061%=      5-min Rain = 0
KLA1 212122Z 13012KT 24/17 A2985 RMK A01 T02420165  RH  062%=      5-min Rain = 0
KLA1 212123Z 14012KT 24/17 A2985 RMK A01 T02430165  RH  062%=      5-min Rain = 0
KLA1 212124Z 15011KT 24/17 A2985 RMK A01 T02430165  RH  062%=      5-min Rain = 0
KLA1 212125Z 16012KT 24/17 A2985 RMK A01 T02430165  RH  062%=      5-min Rain = 0
KLA1 212126Z 15012KT 24/17 A2985 RMK A01 T02420165  RH  062%=      5-min Rain = 0
KLA1 212127Z 14011KT 24/17 A2985 RMK A01 T02410165  RH  062%=      5-min Rain = 0
KLA1 212128Z 15010KT 24/17 A2985 RMK A01 T02410165  RH  062%=      5-min Rain = 0
KLA1 212129Z 14011KT 24/17 A2985 RMK A01 T02410165  RH  062%=      5-min Rain = 0
KLA1 212130Z 15010KT 24/17 A2985 RMK A01 T02400165  RH  063%=      5-min Rain = 0
KLA1 212131Z 15010KT 24/17 A2985 RMK A01 T02400165  RH  063%=      5-min Rain = 0
KLA1 212132Z 13010KT 24/17 A2985 RMK A01 T02410165  RH  063%=      5-min Rain = 0
KLA1 212133Z 15012KT 24/17 A2985 RMK A01 T02420165  RH  062%=      5-min Rain = 0
KLA1 212134Z 14011KT 24/16 A2985 RMK A01 T02430164  RH  062%=      5-min Rain = 0
KLA1 212135Z 14012KT 24/16 A2985 RMK A01 T02420164  RH  062%=      5-min Rain = 0
KLA1 212136Z 14012KT 24/16 A2985 RMK A01 T02410164  RH  062%=      5-min Rain = 0
KLA1 212137Z 15011KT 24/17 A2985 RMK A01 T02410165  RH  062%=      5-min Rain = 0
KLA1 212138Z 14010KT 24/16 A2985 RMK A01 T02410164  RH  062%=      5-min Rain = 0
KLA1 212139Z 14011KT 24/16 A2985 RMK A01 T02410163  RH  062%=      5-min Rain = 0
KLA1 212140Z 14008KT 24/16 A2985 RMK A01 T02410164  RH  062%=      5-min Rain = 0
KLA1 212141Z 14009KT 24/16 A2985 RMK A01 T02410164  RH  062%=      5-min Rain = 0
KLA1 212142Z 13013KT 24/16 A2985 RMK A01 T02410164  RH  062%=      5-min Rain = 0
KLA1 212143Z 13010KT 24/16 A2986 RMK A01 T02400164  RH  063%=      5-min Rain = 0
KLA1 212144Z 15011KT 24/16 A2985 RMK A01 T02380164  RH  063%=      5-min Rain = 0
KLA1 212145Z 15011KT 24/16 A2985 RMK A01 T02390164  RH  063%=      5-min Rain = 0
KLA1 212146Z 14012KT 24/16 A2985 RMK A01 T02400163  RH  062%=      5-min Rain = 0
KLA1 212147Z 13011KT 24/16 A2986 RMK A01 T02400164  RH  062%=      5-min Rain = 0
KLA1 212148Z 12010KT 24/16 A2985 RMK A01 T02390164  RH  063%=      5-min Rain = 0
KLA1 212149Z 13010KT 24/16 A2985 RMK A01 T02380164  RH  063%=      5-min Rain = 0
KLA1 212150Z 14012KT 24/16 A2985 RMK A01 T02380164  RH  063%=      5-min Rain = 0
KLA1 212151Z 14013KT 24/16 A2985 RMK A01 T02380163  RH  063%=      5-min Rain = 0
KLA1 212152Z 15011KT 24/16 A2985 RMK A01 T02370163  RH  063%=      5-min Rain = 0
KLA1 212153Z 14010KT 24/16 A2985 RMK A01 T02370163  RH  063%=      5-min Rain = 0
KLA1 212154Z 13008KT 24/16 A2985 RMK A01 T02370164  RH  063%=      5-min Rain = 0
KLA1 212155Z 13011KT 24/16 A2985 RMK A01 T02370164  RH  063%=      5-min Rain = 0
KLA1 212156Z 13010KT 24/16 A2985 RMK A01 T02370164  RH  063%=      5-min Rain = 0
KLA1 212157Z 12012KT 24/16 A2985 RMK A01 T02370164  RH  064%=      5-min Rain = 0
KLA1 212158Z 13011KT 24/16 A2985 RMK A01 T02380164  RH  063%=      5-min Rain = 0
KLA1 212159Z 13011KT 24/16 A2985 RMK A01 T02360164  RH  064%=      5-min Rain = 0
KLA1 212200Z 12012KT 24/16 A2985 RMK A01 T02360164  RH  064%=      5-min Rain = 0
KLA1 212201Z 12010KT 24/16 A2985 RMK A01 T02360164  RH  064%=      5-min Rain = 0
KLA1 212202Z 12012G17KT 24/16 A2985 RMK A01 T02350164  RH  064%=      5-min Rain = 0
KLA1 212203Z 12011KT 24/16 A2985 RMK A01 T02350164  RH  064%=      5-min Rain = 0
KLA1 212204Z 11011KT 24/16 A2985 RMK A01 T02360164  RH  064%=      5-min Rain = 0
KLA1 212205Z 12010KT 23/16 A2985 RMK A01 T02340163  RH  064%=      5-min Rain = 0
KLA1 212206Z 11011KT 23/16 A2986 RMK A01 T02340164  RH  065%=      5-min Rain = 0
KLA1 212207Z 12012G17KT 23/16 A2986 RMK A01 T02340163  RH  064%=      5-min Rain = 0
KLA1 212208Z 11011G16KT 23/16 A2986 RMK A01 T02330163  RH  065%=      5-min Rain = 0
KLA1 212209Z 12010KT 23/16 A2986 RMK A01 T02330163  RH  065%=      5-min Rain = 0
KLA1 212210Z 11010KT 23/16 A2986 RMK A01 T02330163  RH  065%=      5-min Rain = 0
KLA1 212211Z 11011KT 23/16 A2986 RMK A01 T02330163  RH  065%=      5-min Rain = 0
KLA1 212212Z 12011KT 23/16 A2986 RMK A01 T02320163  RH  065%=      5-min Rain = 0
KLA1 212213Z 12011KT 23/16 A2986 RMK A01 T02320163  RH  065%=      5-min Rain = 0
KLA1 212214Z 12012KT 23/16 A2986 RMK A01 T02330164  RH  065%=      5-min Rain = 0
KLA1 212215Z 13011KT 23/16 A2986 RMK A01 T02320163  RH  065%=      5-min Rain = 0
KLA1 212216Z 12009KT 23/16 A2986 RMK A01 T02320163  RH  065%=      5-min Rain = 0
KLA1 212217Z 11009KT 23/16 A2986 RMK A01 T02310163  RH  066%=      5-min Rain = 0
KLA1 212218Z 13013KT 23/16 A2986 RMK A01 T02310163  RH  065%=      5-min Rain = 0
KLA1 212219Z 12012KT 23/16 A2986 RMK A01 T02320163  RH  065%=      5-min Rain = 0
KLA1 212220Z 13010KT 23/16 A2986 RMK A01 T02310163  RH  066%=      5-min Rain = 0
KLA1 212221Z 12008KT 23/16 A2986 RMK A01 T02290163  RH  066%=      5-min Rain = 0
KLA1 212222Z 12009KT 23/16 A2986 RMK A01 T02300163  RH  066%=      5-min Rain = 0
KLA1 212223Z 12012KT 23/16 A2986 RMK A01 T02300163  RH  066%=      5-min Rain = 0
KLA1 212224Z 12013KT 23/16 A2987 RMK A01 T02310163  RH  066%=      5-min Rain = 0
KLA1 212225Z 13012KT 23/16 A2987 RMK A01 T02300163  RH  066%=      5-min Rain = 0
KLA1 212226Z 13010KT 23/16 A2987 RMK A01 T02300163  RH  066%=      5-min Rain = 0
KLA1 212227Z 13011KT 23/16 A2987 RMK A01 T02300163  RH  066%=      5-min Rain = 0
KLA1 212228Z 13011KT 23/16 A2987 RMK A01 T02300162  RH  066%=      5-min Rain = 0
KLA1 212229Z 13009KT 23/16 A2987 RMK A01 T02300162  RH  065%=      5-min Rain = 0
KLA1 212230Z 13014KT 23/16 A2987 RMK A01 T02310162  RH  065%=      5-min Rain = 0
KLA1 212231Z 13013KT 23/16 A2987 RMK A01 T02290161  RH  065%=      5-min Rain = 0
KLA1 212232Z 13012KT 23/16 A2987 RMK A01 T02280161  RH  066%=      5-min Rain = 0
KLA1 212233Z 14013KT 23/16 A2987 RMK A01 T02280162  RH  066%=      5-min Rain = 0
KLA1 212234Z 13013KT 23/16 A2987 RMK A01 T02280162  RH  066%=      5-min Rain = 0
KLA1 212235Z 14013KT 23/16 A2987 RMK A01 T02270161  RH  066%=      5-min Rain = 0
KLA1 212236Z 14014KT 23/16 A2987 RMK A01 T02270161  RH  067%=      5-min Rain = 0
KLA1 212237Z 14014KT 23/16 A2987 RMK A01 T02260161  RH  067%=      5-min Rain = 0
KLA1 212238Z 14014KT 23/16 A2987 RMK A01 T02250161  RH  067%=      5-min Rain = 0
KLA1 212239Z 14014KT 23/16 A2987 RMK A01 T02250162  RH  067%=      5-min Rain = 0
KLA1 212240Z 14011KT 23/16 A2987 RMK A01 T02250162  RH  068%=      5-min Rain = 0
KLA1 212241Z 13012KT 22/16 A2987 RMK A01 T02240162  RH  068%=      5-min Rain = 0
KLA1 212242Z 13014KT 23/16 A2987 RMK A01 T02250162  RH  067%=      5-min Rain = 0
KLA1 212243Z 13012KT 22/16 A2987 RMK A01 T02240162  RH  068%=      5-min Rain = 0
KLA1 212244Z 14014KT 22/16 A2987 RMK A01 T02240162  RH  068%=      5-min Rain = 0
KLA1 212245Z 13012KT 22/16 A2987 RMK A01 T02240162  RH  068%=      5-min Rain = 0
KLA1 212246Z 13011KT 22/16 A2987 RMK A01 T02230162  RH  068%=      5-min Rain = 0
KLA1 212247Z 13014KT 22/16 A2987 RMK A01 T02230162  RH  068%=      5-min Rain = 0
KLA1 212248Z 13012KT 22/16 A2987 RMK A01 T02230162  RH  068%=      5-min Rain = 0
KLA1 212249Z 12015KT 22/16 A2987 RMK A01 T02220162  RH  069%=      5-min Rain = 0
KLA1 212250Z 13014KT 22/16 A2987 RMK A01 T02210162  RH  069%=      5-min Rain = 0
KLA1 212251Z 12015KT 22/16 A2987 RMK A01 T02210162  RH  069%=      5-min Rain = 0
KLA1 212252Z 12013KT 22/16 A2987 RMK A01 T02190162  RH  070%=      5-min Rain = 0
KLA1 212253Z 12015KT 22/16 A2987 RMK A01 T02190162  RH  070%=      5-min Rain = 0
KLA1 212254Z 12011KT 22/16 A2987 RMK A01 T02190162  RH  070%=      5-min Rain = 0
KLA1 212255Z 12012KT 22/16 A2987 RMK A01 T02190161  RH  070%=      5-min Rain = 0
KLA1 212256Z 12011KT 22/16 A2988 RMK A01 T02190162  RH  070%=      5-min Rain = 0
KLA1 212257Z 13012KT 22/16 A2988 RMK A01 T02180161  RH  070%=      5-min Rain = 0
KLA1 212258Z 13012KT 22/16 A2988 RMK A01 T02180161  RH  070%=      5-min Rain = 0
KLA1 212259Z 13011KT 22/16 A2988 RMK A01 T02180160  RH  070%=      5-min Rain = 0
KLA1 212300Z 12010KT 22/16 A2988 RMK A01 T02180160  RH  070%=      5-min Rain = 0
KLA1 212301Z 12012KT 22/16 A2988 RMK A01 T02180160  RH  069%=      5-min Rain = 0
KLA1 212302Z 12013KT 22/16 A2988 RMK A01 T02180160  RH  070%=      5-min Rain = 0
KLA1 212303Z 12012KT 22/16 A2988 RMK A01 T02160160  RH  070%=      5-min Rain = 0
KLA1 212304Z 12012KT 22/16 A2988 RMK A01 T02160160  RH  070%=      5-min Rain = 0
KLA1 212305Z 12011KT 22/16 A2988 RMK A01 T02160161  RH  070%=      5-min Rain = 0
KLA1 212306Z 12010G15KT 22/16 A2988 RMK A01 T02160160  RH  071%=      5-min Rain = 0
KLA1 212307Z 12013KT 22/16 A2988 RMK A01 T02160161  RH  071%=      5-min Rain = 0
KLA1 212308Z 12013KT 22/16 A2988 RMK A01 T02150160  RH  071%=      5-min Rain = 0
KLA1 212309Z 12012KT 21/16 A2988 RMK A01 T02140161  RH  072%=      5-min Rain = 0
KLA1 212310Z 11014KT 21/16 A2988 RMK A01 T02140161  RH  072%=      5-min Rain = 0
KLA1 212311Z 11014KT 21/16 A2988 RMK A01 T02130161  RH  072%=      5-min Rain = 0
KLA1 212312Z 11013KT 21/16 A2988 RMK A01 T02120162  RH  073%=      5-min Rain = 0
KLA1 212313Z 12013KT 21/16 A2988 RMK A01 T02120162  RH  073%=      5-min Rain = 0
KLA1 212314Z 12016KT 21/16 A2988 RMK A01 T02110162  RH  073%=      5-min Rain = 0
KLA1 212315Z 11013G18KT 21/16 A2988 RMK A01 T02110162  RH  074%=      5-min Rain = 0
KLA1 212316Z 11014KT 21/16 A2988 RMK A01 T02100162  RH  074%=      5-min Rain = 0
KLA1 212317Z 12012KT 21/16 A2988 RMK A01 T02100162  RH  074%=      5-min Rain = 0
KLA1 212318Z 13012G17KT 21/16 A2988 RMK A01 T02100162  RH  074%=      5-min Rain = 0
KLA1 212319Z 12013KT 21/16 A2988 RMK A01 T02090162  RH  074%=      5-min Rain = 0
KLA1 212320Z 12012KT 21/16 A2988 RMK A01 T02080161  RH  074%=      5-min Rain = 0
KLA1 212321Z 12013KT 21/16 A2989 RMK A01 T02080162  RH  075%=      5-min Rain = 0
KLA1 212322Z 12014KT 21/16 A2989 RMK A01 T02080161  RH  075%=      5-min Rain = 0
KLA1 212323Z 12012KT 21/16 A2989 RMK A01 T02070161  RH  075%=      5-min Rain = 0
KLA1 212324Z 12011KT 21/16 A2989 RMK A01 T02070161  RH  075%=      5-min Rain = 0
KLA1 212325Z 12012KT 21/16 A2989 RMK A01 T02060161  RH  075%=      5-min Rain = 0
KLA1 212326Z 12012G18KT 21/16 A2989 RMK A01 T02050161  RH  075%=      5-min Rain = 0
KLA1 212327Z 13014KT 21/16 A2989 RMK A01 T02050160  RH  076%=      5-min Rain = 0
KLA1 212328Z 13013KT 20/16 A2989 RMK A01 T02040160  RH  076%=      5-min Rain = 0
KLA1 212329Z 13011KT 20/16 A2989 RMK A01 T02040160  RH  076%=      5-min Rain = 0
KLA1 212330Z 13013KT 20/16 A2989 RMK A01 T02040160  RH  076%=      5-min Rain = 0
KLA1 212331Z 12014G19KT 20/16 A2989 RMK A01 T02030159  RH  076%=      5-min Rain = 0
KLA1 212332Z 13012KT 20/16 A2989 RMK A01 T02030159  RH  076%=      5-min Rain = 0
KLA1 212333Z 13015KT 20/16 A2989 RMK A01 T02020159  RH  076%=      5-min Rain = 0
KLA1 212334Z 13013G18KT 20/16 A2988 RMK A01 T02020158  RH  076%=      5-min Rain = 0
KLA1 212335Z 13013KT 20/16 A2989 RMK A01 T02020158  RH  076%=      5-min Rain = 0
KLA1 212336Z 13011KT 20/16 A2989 RMK A01 T02010159  RH  076%=      5-min Rain = 0
KLA1 212337Z 13014KT 20/16 A2989 RMK A01 T02010159  RH  077%=      5-min Rain = 0
KLA1 212338Z 12014KT 20/16 A2989 RMK A01 T02000158  RH  077%=      5-min Rain = 0
KLA1 212339Z 13013KT 20/16 A2989 RMK A01 T02000159  RH  077%=      5-min Rain = 0
KLA1 212340Z 12012KT 20/16 A2989 RMK A01 T01990159  RH  077%=      5-min Rain = 0
KLA1 212341Z 12015KT 20/16 A2989 RMK A01 T01990159  RH  078%=      5-min Rain = 0
KLA1 212342Z 13014KT 20/16 A2989 RMK A01 T01990159  RH  078%=      5-min Rain = 0
KLA1 212343Z 13012G17KT 20/16 A2989 RMK A01 T01990160  RH  078%=      5-min Rain = 0
KLA1 212344Z 12012KT 20/16 A2989 RMK A01 T01980159  RH  078%=      5-min Rain = 0
KLA1 212345Z 13011KT 20/16 A2989 RMK A01 T01980159  RH  078%=      5-min Rain = 0
KLA1 212346Z 13013G18KT 20/16 A2989 RMK A01 T01970159  RH  079%=      5-min Rain = 0
KLA1 212347Z 13012KT 20/16 A2989 RMK A01 T01970159  RH  079%=      5-min Rain = 0
KLA1 212348Z 13013KT 20/16 A2989 RMK A01 T01960159  RH  079%=      5-min Rain = 0
KLA1 212349Z 13015KT 20/16 A2989 RMK A01 T01960160  RH  079%=      5-min Rain = 0
KLA1 212350Z 13015KT 20/16 A2989 RMK A01 T01960160  RH  080%=      5-min Rain = 0
KLA1 212351Z 12013KT 20/16 A2989 RMK A01 T01960160  RH  080%=      5-min Rain = 0
KLA1 212352Z 13014KT 20/16 A2989 RMK A01 T01960160  RH  080%=      5-min Rain = 0
KLA1 212353Z 12015G20KT 20/16 A2989 RMK A01 T01960160  RH  080%=      5-min Rain = 0
KLA1 212354Z 12012KT 20/16 A2989 RMK A01 T01950160  RH  080%=      5-min Rain = 0
KLA1 212355Z 12013KT 20/16 A2989 RMK A01 T01950160  RH  080%=      5-min Rain = 0
KLA1 212356Z 12013KT 20/16 A2989 RMK A01 T01950160  RH  080%=      5-min Rain = 0
KLA1 212357Z 12010KT 20/16 A2989 RMK A01 T01950160  RH  080%=      5-min Rain = 0
KLA1 212358Z 12011KT 20/16 A2989 RMK A01 T01950160  RH  080%=      5-min Rain = 0
KLA1 212359Z 12011G16KT 19/16 A2989 RMK A01 T01940160  RH  081%=      5-min Rain = 0
KLA1 220000Z 12008KT 19/16 A2989 RMK A01 T01940160  RH  081%=      5-min Rain = 0
KLA1 220001Z 12012KT 19/16 A2989 RMK A01 T01930160  RH  081%=      5-min Rain = 0
KLA1 220002Z 12011KT 19/16 A2989 RMK A01 T01940161  RH  081%=      5-min Rain = 0
KLA1 220003Z 12009KT 19/16 A2989 RMK A01 T01930161  RH  082%=      5-min Rain = 0
KLA1 220004Z 13011KT 19/16 A2989 RMK A01 T01930161  RH  082%=      5-min Rain = 0
KLA1 220005Z 11008KT 19/16 A2989 RMK A01 T01930161  RH  082%=      5-min Rain = 0
KLA1 220006Z 12007KT 19/16 A2989 RMK A01 T01930161  RH  082%=      5-min Rain = 0
KLA1 220007Z 12009G14KT 19/16 A2989 RMK A01 T01920161  RH  082%=      5-min Rain = 0
KLA1 220008Z 12011KT 19/16 A2989 RMK A01 T01930162  RH  082%=      5-min Rain = 0
KLA1 220009Z 13010KT 19/16 A2989 RMK A01 T01920162  RH  083%=      5-min Rain = 0
KLA1 220010Z 12008KT 19/16 A2989 RMK A01 T01920162  RH  083%=      5-min Rain = 0
KLA1 220011Z 12009KT 19/16 A2989 RMK A01 T01920162  RH  083%=      5-min Rain = 0
KLA1 220012Z 13009KT 19/16 A2989 RMK A01 T01910163  RH  084%=      5-min Rain = 0
KLA1 220013Z 12010KT 19/16 A2989 RMK A01 T01910163  RH  084%=      5-min Rain = 0
KLA1 220014Z 13008G13KT 19/17 A2989 RMK A01 T01910165  RH  084%=      5-min Rain = 0
KLA1 220015Z 13009KT 19/17 A2989 RMK A01 T01910165  RH  085%=      5-min Rain = 0
KLA1 220016Z 13008KT 19/17 A2989 RMK A01 T01910165  RH  085%=      5-min Rain = 0
KLA1 220017Z 12007G12KT 19/17 A2989 RMK A01 T01900165  RH  085%=      5-min Rain = 0
KLA1 220018Z 13008KT 19/17 A2989 RMK A01 T01900166  RH  086%=      5-min Rain = 0
KLA1 220019Z 12008KT 19/17 A2989 RMK A01 T01900165  RH  086%=      5-min Rain = 0
KLA1 220020Z 12008G13KT 19/17 A2989 RMK A01 T01900166  RH  086%=      5-min Rain = 0
KLA1 220021Z 12009KT 19/17 A2989 RMK A01 T01900167  RH  086%=      5-min Rain = 0
KLA1 220022Z 13011KT 19/17 A2989 RMK A01 T01890167  RH  087%=      5-min Rain = 0
KLA1 220023Z 13013KT 19/17 A2989 RMK A01 T01890168  RH  087%=      5-min Rain = 0
KLA1 220024Z 13011KT 19/17 A2989 RMK A01 T01900168  RH  087%=      5-min Rain = 0
KLA1 220025Z 13010KT 19/17 A2989 RMK A01 T01890168  RH  087%=      5-min Rain = 0
KLA1 220026Z 13012KT 19/17 A2989 RMK A01 T01890168  RH  088%=      5-min Rain = 0
KLA1 220027Z 13011KT 19/17 A2989 RMK A01 T01890169  RH  088%=      5-min Rain = 0
KLA1 220028Z 13010KT 19/17 A2989 RMK A01 T01890169  RH  088%=      5-min Rain = 0
KLA1 220029Z 13009G14KT 19/17 A2989 RMK A01 T01890169  RH  088%=      5-min Rain = 0
KLA1 220030Z 12007G12KT 19/17 A299 RMK A01 T01890169  RH  088%=      5-min Rain = 0
KLA1 220031Z 13010KT 19/17 A299 RMK A01 T01890169  RH  088%=      5-min Rain = 0
KLA1 220032Z 12007KT 19/17 A299 RMK A01 T01890170  RH  089%=      5-min Rain = 0
KLA1 220033Z 12009KT 19/17 A299 RMK A01 T01880170  RH  089%=      5-min Rain = 0
KLA1 220034Z 12006KT 19/17 A299 RMK A01 T01880170  RH  090%=      5-min Rain = 0
KLA1 220035Z 12008KT 19/17 A299 RMK A01 T01880171  RH  090%=      5-min Rain = 0
KLA1 220036Z 13008KT 19/17 A299 RMK A01 T01880171  RH  090%=      5-min Rain = 0
KLA1 220037Z 12008KT 19/17 A299 RMK A01 T01880171  RH  090%=      5-min Rain = 0
KLA1 220038Z 12009KT 19/17 A299 RMK A01 T01870171  RH  090%=      5-min Rain = 0
KLA1 220039Z 13008KT 19/17 A299 RMK A01 T01870172  RH  091%=      5-min Rain = 0
KLA1 220040Z 12007KT 19/17 A299 RMK A01 T01870172  RH  091%=      5-min Rain = 0
KLA1 220041Z 12008KT 19/17 A299 RMK A01 T01870172  RH  091%=      5-min Rain = 0
KLA1 220042Z 13009KT 19/17 A299 RMK A01 T01870172  RH  091%=      5-min Rain = 0
KLA1 220043Z 13009KT 19/17 A299 RMK A01 T01870172  RH  091%=      5-min Rain = 0
KLA1 220044Z 12009KT 19/17 A299 RMK A01 T01860173  RH  092%=      5-min Rain = 0
KLA1 220045Z 13009KT 19/17 A299 RMK A01 T01870173  RH  092%=      5-min Rain = 0
KLA1 220046Z 12010KT 19/17 A299 RMK A01 T01870174  RH  092%=      5-min Rain = 0
KLA1 220047Z 12010KT 19/17 A299 RMK A01 T01870174  RH  092%=      5-min Rain = 0
KLA1 220048Z 12009KT 19/17 A299 RMK A01 T01870174  RH  092%=      5-min Rain = 0
KLA1 220049Z 12010KT 19/17 A299 RMK A01 T01870174  RH  093%=      5-min Rain = 0
KLA1 220050Z 11011KT 19/18 A299 RMK A01 T01870175  RH  093%=      5-min Rain = 0
KLA1 220051Z 12009KT 19/18 A299 RMK A01 T01870175  RH  093%=      5-min Rain = 0
KLA1 220052Z 12009KT 19/18 A299 RMK A01 T01870175  RH  093%=      5-min Rain = 0
KLA1 220053Z 11009KT 19/18 A299 RMK A01 T01870176  RH  093%=      5-min Rain = 0
KLA1 220054Z 12008KT 19/18 A299 RMK A01 T01880176  RH  093%=      5-min Rain = 0
KLA1 220055Z 12007KT 19/18 A299 RMK A01 T01880176  RH  093%=      5-min Rain = 0
KLA1 220056Z 12010KT 19/18 A299 RMK A01 T01880176  RH  093%=      5-min Rain = 0
KLA1 220057Z 12009KT 19/18 A299 RMK A01 T01880177  RH  093%=      5-min Rain = 0
KLA1 220058Z 12009KT 19/18 A299 RMK A01 T01880177  RH  093%=      5-min Rain = 0
KLA1 220059Z 12009KT 19/18 A299 RMK A01 T01880177  RH  093%=      5-min Rain = 0
KLA1 220100Z 13008KT 19/18 A299 RMK A01 T01880177  RH  093%=      5-min Rain = 0
KLA1 220101Z 12009KT 19/18 A299 RMK A01 T01870177  RH  094%=      5-min Rain = 0
KLA1 220102Z 12007KT 19/18 A299 RMK A01 T01870177  RH  094%=      5-min Rain = 0
KLA1 220103Z 13007KT 19/18 A299 RMK A01 T01870178  RH  094%=      5-min Rain = 0
KLA1 220104Z 13008KT 19/18 A299 RMK A01 T01880178  RH  094%=      5-min Rain = 0
KLA1 220105Z 13008KT 19/18 A299 RMK A01 T01880178  RH  094%=      5-min Rain = 0
KLA1 220106Z 13009KT 19/18 A299 RMK A01 T01880178  RH  094%=      5-min Rain = 0
KLA1 220107Z 13008KT 19/18 A2991 RMK A01 T01870178  RH  094%=      5-min Rain = 0
KLA1 220108Z 13008KT 19/18 A2991 RMK A01 T01880179  RH  094%=      5-min Rain = 0
KLA1 220109Z 13009KT 19/18 A2991 RMK A01 T01880179  RH  094%=      5-min Rain = 0
KLA1 220110Z 12007KT 19/18 A2991 RMK A01 T01880179  RH  095%=      5-min Rain = 0
KLA1 220111Z 13007KT 19/18 A2991 RMK A01 T01880179  RH  095%=      5-min Rain = 0
KLA1 220112Z 13008KT 19/18 A2991 RMK A01 T01880179  RH  095%=      5-min Rain = 0
KLA1 220113Z 12007KT 19/18 A2991 RMK A01 T01880179  RH  095%=      5-min Rain = 0
KLA1 220114Z 11006KT 19/18 A2991 RMK A01 T01880179  RH  095%=      5-min Rain = 0
KLA1 220115Z 13006KT 19/18 A2991 RMK A01 T01880179  RH  095%=      5-min Rain = 0
KLA1 220116Z 13006KT 19/18 A2991 RMK A01 T01880179  RH  095%=      5-min Rain = 0
KLA1 220117Z 12006KT 19/18 A2991 RMK A01 T01880180  RH  095%=      5-min Rain = 0
KLA1 220118Z 12007KT 19/18 A2991 RMK A01 T01880179  RH  095%=      5-min Rain = 0
KLA1 220119Z 13007KT 19/18 A2991 RMK A01 T01880179  RH  095%=      5-min Rain = 0
KLA1 220120Z 13006KT 19/18 A2991 RMK A01 T01880180  RH  095%=      5-min Rain = 0
KLA1 220121Z 14007KT 19/18 A2991 RMK A01 T01880180  RH  095%=      5-min Rain = 0
KLA1 220122Z 13006KT 19/18 A2991 RMK A01 T01880180  RH  095%=      5-min Rain = 0
KLA1 220123Z 13005KT 19/18 A2991 RMK A01 T01880180  RH  095%=      5-min Rain = 0
KLA1 220124Z 12006KT 19/18 A2991 RMK A01 T01880180  RH  095%=      5-min Rain = 0
KLA1 220125Z 13007KT 19/18 A2991 RMK A01 T01880180  RH  095%=      5-min Rain = 0
KLA1 220126Z 13008KT 19/18 A2991 RMK A01 T01880180  RH  095%=      5-min Rain = 0
KLA1 220127Z 14009KT 19/18 A2991 RMK A01 T01880180  RH  095%=      5-min Rain = 0
KLA1 220128Z 13008KT 19/18 A2991 RMK A01 T01880181  RH  096%=      5-min Rain = 0
KLA1 220129Z 13009KT 19/18 A2991 RMK A01 T01880181  RH  096%=      5-min Rain = 0
KLA1 220130Z 12008KT 19/18 A2991 RMK A01 T01870180  RH  096%=      5-min Rain = 0
KLA1 220131Z 14009KT 19/18 A2992 RMK A01 T01880181  RH  096%=      5-min Rain = 0
KLA1 220132Z 14007KT 19/18 A2992 RMK A01 T01870181  RH  096%=      5-min Rain = 0
KLA1 220133Z 12006G11KT 19/18 A2992 RMK A01 T01870181  RH  096%=      5-min Rain = 0
KLA1 220134Z 13008KT 19/18 A2992 RMK A01 T01880181  RH  096%=      5-min Rain = 0
KLA1 220135Z 14009KT 19/18 A2992 RMK A01 T01880181  RH  096%=      5-min Rain = 0
KLA1 220136Z 12007KT 19/18 A2992 RMK A01 T01880181  RH  096%=      5-min Rain = 0
KLA1 220137Z 13008KT 19/18 A2992 RMK A01 T01870181  RH  096%=      5-min Rain = 0
KLA1 220138Z 12007KT 19/18 A2992 RMK A01 T01880181  RH  096%=      5-min Rain = 0
KLA1 220139Z 13009KT 19/18 A2992 RMK A01 T01880182  RH  096%=      5-min Rain = 0
KLA1 220140Z 12007KT 19/18 A2992 RMK A01 T01880182  RH  096%=      5-min Rain = 0
KLA1 220141Z 12007KT 19/18 A2992 RMK A01 T01880182  RH  096%=      5-min Rain = 0
KLA1 220142Z 13006KT 19/18 A2992 RMK A01 T01880182  RH  096%=      5-min Rain = 0
KLA1 220143Z 13006KT 19/18 A2992 RMK A01 T01880182  RH  096%=      5-min Rain = 0
KLA1 220144Z 13005KT 19/18 A2992 RMK A01 T01880182  RH  096%=      5-min Rain = 0
KLA1 220145Z 12007KT 19/18 A2992 RMK A01 T01880182  RH  096%=      5-min Rain = 0
KLA1 220146Z 11006KT 19/18 A2992 RMK A01 T01880182  RH  096%=      5-min Rain = 0
KLA1 220147Z 12006KT 19/18 A2992 RMK A01 T01890182  RH  096%=      5-min Rain = 0
KLA1 220148Z 12007KT 19/18 A2992 RMK A01 T01890182  RH  096%=      5-min Rain = 0
KLA1 220149Z 13007KT 19/18 A2992 RMK A01 T01890182  RH  096%=      5-min Rain = 0
KLA1 220150Z 13007KT 19/18 A2992 RMK A01 T01880182  RH  096%=      5-min Rain = 0
KLA1 220151Z 12006KT 19/18 A2993 RMK A01 T01890182  RH  096%=      5-min Rain = 0
KLA1 220152Z 12006KT 19/18 A2993 RMK A01 T01890182  RH  096%=      5-min Rain = 0
KLA1 220153Z 12007KT 19/18 A2993 RMK A01 T01890182  RH  096%=      5-min Rain = 0
KLA1 220154Z 13005KT 19/18 A2993 RMK A01 T01890182  RH  096%=      5-min Rain = 0
KLA1 220155Z 14005KT 19/18 A2993 RMK A01 T01890182  RH  095%=      5-min Rain = 0
KLA1 220156Z 12006KT 19/18 A2993 RMK A01 T01890182  RH  095%=      5-min Rain = 0
KLA1 220157Z 13006KT 19/18 A2993 RMK A01 T01890182  RH  095%=      5-min Rain = 0
KLA1 220158Z 13005KT 19/18 A2993 RMK A01 T01890182  RH  095%=      5-min Rain = 0
KLA1 220159Z 13004KT 19/18 A2993 RMK A01 T01900182  RH  095%=      5-min Rain = 0
KLA1 220200Z 12005KT 19/18 A2993 RMK A01 T01900182  RH  095%=      5-min Rain = 0
KLA1 220201Z 13005KT 19/18 A2994 RMK A01 T01890181  RH  095%=      5-min Rain = 0
KLA1 220202Z 15005KT 19/18 A2994 RMK A01 T01900181  RH  095%=      5-min Rain = 0
KLA1 220203Z 15005KT 19/18 A2994 RMK A01 T01900181  RH  094%=      5-min Rain = 0
KLA1 220204Z 16003KT 19/18 A2994 RMK A01 T01900181  RH  094%=      5-min Rain = 0
KLA1 220205Z 17004KT 19/18 A2994 RMK A01 T01910181  RH  094%=      5-min Rain = 0
KLA1 220206Z 17007KT 19/18 A2994 RMK A01 T01910181  RH  094%=      5-min Rain = 0
KLA1 220207Z 17006KT 19/18 A2994 RMK A01 T01910181  RH  094%=      5-min Rain = 0
KLA1 220208Z 17005KT 19/18 A2994 RMK A01 T01910180  RH  093%=      5-min Rain = 0
KLA1 220209Z 15005KT 19/18 A2994 RMK A01 T01910180  RH  093%=      5-min Rain = 0
KLA1 220210Z 13006KT 19/18 A2994 RMK A01 T01920180  RH  093%=      5-min Rain = 0
KLA1 220211Z 15006KT 19/18 A2994 RMK A01 T01920180  RH  093%=      5-min Rain = 0
KLA1 220212Z 15004KT 19/18 A2994 RMK A01 T01920180  RH  093%=      5-min Rain = 0
KLA1 220213Z 15006KT 19/18 A2994 RMK A01 T01920180  RH  093%=      5-min Rain = 0
KLA1 220214Z 16006KT 19/18 A2994 RMK A01 T01920180  RH  093%=      5-min Rain = 0
KLA1 220215Z 18004KT 19/18 A2994 RMK A01 T01920180  RH  092%=      5-min Rain = 0
KLA1 220216Z 18005KT 19/18 A2995 RMK A01 T01930180  RH  092%=      5-min Rain = 0
KLA1 220217Z 20005KT 19/18 A2995 RMK A01 T01930180  RH  092%=      5-min Rain = 0
KLA1 220218Z 18004KT 19/18 A2995 RMK A01 T01930180  RH  092%=      5-min Rain = 0
KLA1 220219Z 17003KT 19/18 A2995 RMK A01 T01930180  RH  092%=      5-min Rain = 0
KLA1 220220Z 20003KT 19/18 A2995 RMK A01 T01930180  RH  092%=      5-min Rain = 0
KLA1 220221Z 19005KT 19/18 A2995 RMK A01 T01930180  RH  092%=      5-min Rain = 0
KLA1 220222Z 19004KT 19/18 A2995 RMK A01 T01930179  RH  092%=      5-min Rain = 0
KLA1 220223Z 19003KT 19/18 A2995 RMK A01 T01930180  RH  092%=      5-min Rain = 0
KLA1 220224Z 20004KT 19/18 A2995 RMK A01 T01930179  RH  092%=      5-min Rain = 0
KLA1 220225Z 19003KT 19/18 A2995 RMK A01 T01930179  RH  092%=      5-min Rain = 0
KLA1 220226Z 19004KT 19/18 A2995 RMK A01 T01930179  RH  092%=      5-min Rain = 0
KLA1 220227Z 17003KT 19/18 A2995 RMK A01 T01930180  RH  092%=      5-min Rain = 0
KLA1 220228Z 17004KT 19/18 A2995 RMK A01 T01930180  RH  092%=      5-min Rain = 0
KLA1 220229Z 18006KT 19/18 A2995 RMK A01 T01930180  RH  092%=      5-min Rain = 0
KLA1 220230Z 19006KT 19/18 A2995 RMK A01 T01930180  RH  092%=      5-min Rain = 0
KLA1 220231Z 19005KT 19/18 A2995 RMK A01 T01940180  RH  092%=      5-min Rain = 0
KLA1 220232Z 18004KT 19/18 A2995 RMK A01 T01930180  RH  092%=      5-min Rain = 0
KLA1 220233Z 18006KT 19/18 A2995 RMK A01 T01940180  RH  092%=      5-min Rain = 0
KLA1 220234Z 18005KT 19/18 A2995 RMK A01 T01940180  RH  092%=      5-min Rain = 0
KLA1 220235Z 17005KT 19/18 A2996 RMK A01 T01940180  RH  092%=      5-min Rain = 0
KLA1 220236Z 17006KT 19/18 A2996 RMK A01 T01940180  RH  092%=      5-min Rain = 0
KLA1 220237Z 16005KT 19/18 A2996 RMK A01 T01940180  RH  092%=      5-min Rain = 0
KLA1 220238Z 17004KT 19/18 A2996 RMK A01 T01940180  RH  092%=      5-min Rain = 0
KLA1 220239Z 17005KT 19/18 A2995 RMK A01 T01940180  RH  092%=      5-min Rain = 0
KLA1 220240Z 16006KT 19/18 A2996 RMK A01 T01940180  RH  092%=      5-min Rain = 0
KLA1 220241Z 16007KT 19/18 A2996 RMK A01 T01940180  RH  092%=      5-min Rain = 0
KLA1 220242Z 16006KT 19/18 A2996 RMK A01 T01940180  RH  092%=      5-min Rain = 0
KLA1 220243Z 16006KT 19/18 A2996 RMK A01 T01940181  RH  092%=      5-min Rain = 0
KLA1 220244Z 16006KT 19/18 A2996 RMK A01 T01940181  RH  092%=      5-min Rain = 0
KLA1 220245Z 15006KT 19/18 A2995 RMK A01 T01940180  RH  092%=      5-min Rain = 0
KLA1 220246Z 17006KT 19/18 A2995 RMK A01 T01940180  RH  092%=      5-min Rain = 0
KLA1 220247Z 17006KT 19/18 A2995 RMK A01 T01940180  RH  092%=      5-min Rain = 0
KLA1 220248Z 15005KT 19/18 A2995 RMK A01 T01940181  RH  092%=      5-min Rain = 0
KLA1 220249Z 15004KT 19/18 A2995 RMK A01 T01940180  RH  092%=      5-min Rain = 0
KLA1 220250Z 15006KT 19/18 A2995 RMK A01 T01940181  RH  092%=      5-min Rain = 0
KLA1 220251Z 15007KT 19/18 A2995 RMK A01 T01940181  RH  092%=      5-min Rain = 0
KLA1 220252Z 15007KT 19/18 A2995 RMK A01 T01940181  RH  092%=      5-min Rain = 0
KLA1 220253Z 15005KT 19/18 A2995 RMK A01 T01940180  RH  092%=      5-min Rain = 0
KLA1 220254Z 16005KT 19/18 A2995 RMK A01 T01940180  RH  092%=      5-min Rain = 0
KLA1 220255Z 15006KT 19/18 A2995 RMK A01 T01940180  RH  092%=      5-min Rain = 0
KLA1 220256Z 15005KT 19/18 A2995 RMK A01 T01940180  RH  092%=      5-min Rain = 0
KLA1 220257Z 16006KT 19/18 A2995 RMK A01 T01940181  RH  092%=      5-min Rain = 0
KLA1 220258Z 16006KT 19/18 A2995 RMK A01 T01940180  RH  092%=      5-min Rain = 0
KLA1 220259Z 15007KT 19/18 A2995 RMK A01 T01940180  RH  091%=      5-min Rain = 0
KLA1 220300Z 14005KT 19/18 A2995 RMK A01 T01940180  RH  091%=      5-min Rain = 0
KLA1 220301Z 14005KT 19/18 A2995 RMK A01 T01940180  RH  091%=      5-min Rain = 0
KLA1 220302Z 15006KT 19/18 A2995 RMK A01 T01940180  RH  091%=      5-min Rain = 0
KLA1 220303Z 15005KT 19/18 A2995 RMK A01 T01940180  RH  091%=      5-min Rain = 0
KLA1 220304Z 15007KT 19/18 A2995 RMK A01 T01940180  RH  091%=      5-min Rain = 0
KLA1 220305Z 14006KT 19/18 A2995 RMK A01 T01940179  RH  091%=      5-min Rain = 0
KLA1 220306Z 14006KT 19/18 A2995 RMK A01 T01940179  RH  091%=      5-min Rain = 0
KLA1 220307Z 14006KT 19/18 A2995 RMK A01 T01940180  RH  091%=      5-min Rain = 0
KLA1 220308Z 14005KT 19/18 A2995 RMK A01 T01940180  RH  091%=      5-min Rain = 0
KLA1 220309Z 14005KT 19/18 A2995 RMK A01 T01940180  RH  091%=      5-min Rain = 0
KLA1 220310Z 14005KT 19/18 A2995 RMK A01 T01940180  RH  092%=      5-min Rain = 0
KLA1 220311Z 14006KT 19/18 A2995 RMK A01 T01940180  RH  092%=      5-min Rain = 0
KLA1 220312Z 13004KT 19/18 A2995 RMK A01 T01930181  RH  092%=      5-min Rain = 0
KLA1 220313Z 14005KT 19/18 A2995 RMK A01 T01930181  RH  093%=      5-min Rain = 0
KLA1 220314Z 14005KT 19/18 A2995 RMK A01 T01930182  RH  093%=      5-min Rain = 0
KLA1 220315Z 13004KT 19/18 A2995 RMK A01 T01930181  RH  093%=      5-min Rain = 0
KLA1 220316Z 14005KT 19/18 A2995 RMK A01 T01930182  RH  093%=      5-min Rain = 0
KLA1 220317Z 14005KT 19/18 A2995 RMK A01 T01920182  RH  094%=      5-min Rain = 0
KLA1 220318Z 14005KT 19/18 A2995 RMK A01 T01920182  RH  094%=      5-min Rain = 0
KLA1 220319Z 13004KT 19/18 A2995 RMK A01 T01920182  RH  094%=      5-min Rain = 0
KLA1 220320Z 13005KT 19/18 A2995 RMK A01 T01920182  RH  094%=      5-min Rain = 0
KLA1 220321Z 13005KT 19/18 A2995 RMK A01 T01920182  RH  094%=      5-min Rain = 0
KLA1 220322Z 13005KT 19/18 A2995 RMK A01 T01910182  RH  094%=      5-min Rain = 0
KLA1 220323Z 14004KT 19/18 A2995 RMK A01 T01910183  RH  095%=      5-min Rain = 0
KLA1 220324Z 13005KT 19/18 A2995 RMK A01 T01910182  RH  095%=      5-min Rain = 0
KLA1 220325Z 13006KT 19/18 A2995 RMK A01 T01910183  RH  095%=      5-min Rain = 0
KLA1 220326Z 13006KT 19/18 A2995 RMK A01 T01900183  RH  095%=      5-min Rain = 0
KLA1 220327Z 13006KT 19/18 A2995 RMK A01 T01900183  RH  096%=      5-min Rain = 0
KLA1 220328Z 13005KT 19/18 A2995 RMK A01 T01900183  RH  096%=      5-min Rain = 0
KLA1 220329Z 13005KT 19/18 A2995 RMK A01 T01900183  RH  096%=      5-min Rain = 0
KLA1 220330Z 12004KT 19/18 A2995 RMK A01 T01890183  RH  096%=      5-min Rain = 0
KLA1 220331Z 12005KT 19/18 A2995 RMK A01 T01890183  RH  096%=      5-min Rain = 0
KLA1 220332Z 12006KT 19/18 A2995 RMK A01 T01890184  RH  097%=      5-min Rain = 0
KLA1 220333Z 13005KT 19/18 A2995 RMK A01 T01890184  RH  097%=      5-min Rain = 0
KLA1 220334Z 12005KT 19/18 A2995 RMK A01 T01890184  RH  097%=      5-min Rain = 0
KLA1 220335Z 12004KT 19/18 A2995 RMK A01 T01890184  RH  097%=      5-min Rain = 0
KLA1 220336Z 11004KT 19/18 A2995 RMK A01 T01890184  RH  097%=      5-min Rain = 0
KLA1 220337Z 11004KT 19/18 A2995 RMK A01 T01890184  RH  097%=      5-min Rain = 0
KLA1 220338Z 12004KT 19/18 A2995 RMK A01 T01890184  RH  097%=      5-min Rain = 0
KLA1 220339Z 12004KT 19/18 A2995 RMK A01 T01890184  RH  097%=      5-min Rain = 0
KLA1 220340Z 12003KT 19/19 A2995 RMK A01 T01890185  RH  097%=      5-min Rain = 0
KLA1 220341Z 12004KT 19/18 A2995 RMK A01 T01890184  RH  097%=      5-min Rain = 0
KLA1 220342Z 12004KT 19/19 A2995 RMK A01 T01900185  RH  097%=      5-min Rain = 0
KLA1 220343Z 11003KT 19/19 A2995 RMK A01 T01900185  RH  097%=      5-min Rain = 0
KLA1 220344Z 11003KT 19/19 A2995 RMK A01 T01900185  RH  097%=      5-min Rain = 0
KLA1 220345Z 11004KT 19/19 A2995 RMK A01 T01900185  RH  097%=      5-min Rain = 0
KLA1 220346Z 11003KT 19/19 A2995 RMK A01 T01900185  RH  097%=      5-min Rain = 0
KLA1 220347Z 11003KT 19/19 A2995 RMK A01 T01890185  RH  097%=      5-min Rain = 0
KLA1 220348Z 12004KT 19/19 A2995 RMK A01 T01890185  RH  097%=      5-min Rain = 0
KLA1 220349Z 11004KT 19/19 A2995 RMK A01 T01890185  RH  097%=      5-min Rain = 0
KLA1 220350Z 11004KT 19/19 A2995 RMK A01 T01900185  RH  097%=      5-min Rain = 0
KLA1 220351Z 12004KT 19/19 A2995 RMK A01 T01900185  RH  097%=      5-min Rain = 0
KLA1 220352Z 12004KT 19/19 A2995 RMK A01 T01890185  RH  097%=      5-min Rain = 0
KLA1 220353Z 12005KT 19/19 A2995 RMK A01 T01890185  RH  097%=      5-min Rain = 0
KLA1 220354Z 12005KT 19/19 A2995 RMK A01 T01890185  RH  097%=      5-min Rain = 0
KLA1 220355Z 12004KT 19/19 A2995 RMK A01 T01900185  RH  097%=      5-min Rain = 0
KLA1 220356Z 11004KT 19/19 A2995 RMK A01 T01890185  RH  097%=      5-min Rain = 0
KLA1 220357Z 11004KT 19/19 A2995 RMK A01 T01890185  RH  097%=      5-min Rain = 0
KLA1 220358Z 11004KT 19/19 A2994 RMK A01 T01890185  RH  097%=      5-min Rain = 0
KLA1 220359Z 12004KT 19/19 A2994 RMK A01 T01890185  RH  097%=      5-min Rain = 0
KLA1 220400Z 12005KT 19/19 A2994 RMK A01 T01890186  RH  098%=      5-min Rain = 0
KLA1 220401Z 12005KT 19/19 A2994 RMK A01 T01900186  RH  098%=      5-min Rain = 0
KLA1 220402Z 11004KT 19/19 A2994 RMK A01 T01890186  RH  098%=      5-min Rain = 0
KLA1 220403Z 11005KT 19/19 A2994 RMK A01 T01900186  RH  098%=      5-min Rain = 0
KLA1 220404Z 11005KT 19/19 A2994 RMK A01 T01900186  RH  098%=      5-min Rain = 0
KLA1 220405Z 12004KT 19/19 A2994 RMK A01 T01900186  RH  097%=      5-min Rain = 0
KLA1 220406Z 11003KT 19/19 A2994 RMK A01 T01900186  RH  097%=      5-min Rain = 0
KLA1 220407Z 12004KT 19/19 A2994 RMK A01 T01900186  RH  097%=      5-min Rain = 0
KLA1 220408Z 13004KT 19/19 A2994 RMK A01 T01900186  RH  097%=      5-min Rain = 0
KLA1 220409Z 12004KT 19/19 A2995 RMK A01 T01900186  RH  098%=      5-min Rain = 0
KLA1 220410Z 13004KT 19/19 A2995 RMK A01 T01900186  RH  098%=      5-min Rain = 0
KLA1 220411Z 14005KT 19/19 A2995 RMK A01 T01900186  RH  098%=      5-min Rain = 0
KLA1 220412Z 13005KT 19/19 A2995 RMK A01 T01900186  RH  098%=      5-min Rain = 0
KLA1 220413Z 13004KT 19/19 A2995 RMK A01 T01900186  RH  098%=      5-min Rain = 0
KLA1 220414Z 13005KT 19/19 A2995 RMK A01 T01900186  RH  098%=      5-min Rain = 0
KLA1 220415Z 13004KT 19/19 A2995 RMK A01 T01900186  RH  098%=      5-min Rain = 0
KLA1 220416Z 12005KT 19/19 A2995 RMK A01 T01900186  RH  098%=      5-min Rain = 0
KLA1 220417Z 13005KT 19/19 A2995 RMK A01 T01900186  RH  098%=      5-min Rain = 0
KLA1 220418Z 13004KT 19/19 A2995 RMK A01 T01900186  RH  098%=      5-min Rain = 0
KLA1 220419Z 13004KT 19/19 A2995 RMK A01 T01900187  RH  098%=      5-min Rain = 0
KLA1 220420Z 12004KT 19/19 A2995 RMK A01 T01900186  RH  098%=      5-min Rain = 0
KLA1 220421Z 13004KT 19/19 A2995 RMK A01 T01900186  RH  098%=      5-min Rain = 0
KLA1 220422Z 12005KT 19/19 A2995 RMK A01 T01900186  RH  098%=      5-min Rain = 0
KLA1 220423Z 13005KT 19/19 A2995 RMK A01 T01900186  RH  098%=      5-min Rain = 0
KLA1 220424Z 13004KT 19/19 A2995 RMK A01 T01900186  RH  098%=      5-min Rain = 0
KLA1 220425Z 13005KT 19/19 A2995 RMK A01 T01900186  RH  098%=      5-min Rain = 0
KLA1 220426Z 13005KT 19/19 A2995 RMK A01 T01900186  RH  098%=      5-min Rain = 0
KLA1 220427Z 13005KT 19/19 A2995 RMK A01 T01900186  RH  098%=      5-min Rain = 0
KLA1 220428Z 14004KT 19/19 A2995 RMK A01 T01900186  RH  098%=      5-min Rain = 0
KLA1 220429Z 14004KT 19/19 A2995 RMK A01 T01900186  RH  098%=      5-min Rain = 0
KLA1 220430Z 13006KT 19/19 A2995 RMK A01 T01900187  RH  098%=      5-min Rain = 0
KLA1 220431Z 14005KT 19/19 A2995 RMK A01 T01900186  RH  098%=      5-min Rain = 0
KLA1 220432Z 13005KT 19/19 A2995 RMK A01 T01900187  RH  098%=      5-min Rain = 0
KLA1 220433Z 14005KT 19/19 A2995 RMK A01 T01900187  RH  098%=      5-min Rain = 0
KLA1 220434Z 14006KT 19/19 A2995 RMK A01 T01900187  RH  098%=      5-min Rain = 0
KLA1 220435Z 14007KT 19/19 A2995 RMK A01 T01900187  RH  098%=      5-min Rain = 0
KLA1 220436Z 14006KT 19/19 A2994 RMK A01 T01900187  RH  098%=      5-min Rain = 0
KLA1 220437Z 14006KT 19/19 A2995 RMK A01 T01900187  RH  098%=      5-min Rain = 0
KLA1 220438Z 14006KT 19/19 A2995 RMK A01 T01900187  RH  098%=      5-min Rain = 0
KLA1 220439Z 13005KT 19/19 A2995 RMK A01 T01900187  RH  098%=      5-min Rain = 0
KLA1 220440Z 14006KT 19/19 A2995 RMK A01 T01900188  RH  098%=      5-min Rain = 0
KLA1 220441Z 14005KT 19/19 A2995 RMK A01 T01900187  RH  098%=      5-min Rain = 0
KLA1 220442Z 14006KT 19/19 A2995 RMK A01 T01900188  RH  099%=      5-min Rain = 0
KLA1 220443Z 14006KT 19/19 A2995 RMK A01 T01900188  RH  099%=      5-min Rain = 0
KLA1 220444Z 14006KT 19/19 A2995 RMK A01 T01890187  RH  099%=      5-min Rain = 0
KLA1 220445Z 14006KT 19/19 A2995 RMK A01 T01890187  RH  099%=      5-min Rain = 0
KLA1 220446Z 14006KT 19/19 A2995 RMK A01 T01890187  RH  099%=      5-min Rain = 0
KLA1 220447Z 15005KT 19/19 A2995 RMK A01 T01900188  RH  099%=      5-min Rain = 0
KLA1 220448Z 14005KT 19/19 A2995 RMK A01 T01890187  RH  099%=      5-min Rain = 0
KLA1 220449Z 14005KT 19/19 A2995 RMK A01 T01890187  RH  099%=      5-min Rain = 0
KLA1 220450Z 14004KT 19/19 A2995 RMK A01 T01890187  RH  099%=      5-min Rain = 0
KLA1 220451Z 13005KT 19/19 A2995 RMK A01 T01890187  RH  099%=      5-min Rain = 0
KLA1 220452Z 14004KT 19/19 A2995 RMK A01 T01890187  RH  099%=      5-min Rain = 0
KLA1 220453Z 14005KT 19/19 A2995 RMK A01 T01890187  RH  099%=      5-min Rain = 0
KLA1 220454Z 13004KT 19/19 A2995 RMK A01 T01890188  RH  099%=      5-min Rain = 0
KLA1 220455Z 13004KT 19/19 A2995 RMK A01 T01890188  RH  099%=      5-min Rain = 0
KLA1 220456Z 12004KT 19/19 A2995 RMK A01 T01890187  RH  099%=      5-min Rain = 0
KLA1 220457Z 12003KT 19/19 A2995 RMK A01 T01890187  RH  099%=      5-min Rain = 0
KLA1 220458Z 13002KT 19/19 A2995 RMK A01 T01890187  RH  099%=      5-min Rain = 0
KLA1 220459Z 12004KT 19/19 A2995 RMK A01 T01890187  RH  099%=      5-min Rain = 0
KLA1 220500Z 13002KT 19/19 A2995 RMK A01 T01890187  RH  099%=      5-min Rain = 0
KLA1 220501Z 12003KT 19/19 A2995 RMK A01 T01880187  RH  099%=      5-min Rain = 0
KLA1 220502Z 12002KT 19/19 A2995 RMK A01 T01880187  RH  099%=      5-min Rain = 0
KLA1 220503Z 13003KT 19/19 A2995 RMK A01 T01880187  RH  099%=      5-min Rain = 0
KLA1 220504Z 13003KT 19/19 A2994 RMK A01 T01880187  RH  099%=      5-min Rain = 0
KLA1 220505Z 13003KT 19/19 A2994 RMK A01 T01880187  RH  099%=      5-min Rain = 0
KLA1 220506Z 13004KT 19/19 A2994 RMK A01 T01880187  RH  099%=      5-min Rain = 0
KLA1 220507Z 14004KT 19/19 A2994 RMK A01 T01870186  RH  099%=      5-min Rain = 0
KLA1 220508Z 15004KT 19/19 A2994 RMK A01 T01870186  RH  099%=      5-min Rain = 0
KLA1 220509Z 15004KT 19/19 A2994 RMK A01 T01870186  RH  099%=      5-min Rain = 0
KLA1 220510Z 14004KT 19/19 A2994 RMK A01 T01860186  RH  100%=      5-min Rain = 0
KLA1 220511Z 14005KT 19/19 A2994 RMK A01 T01860186  RH  100%=      5-min Rain = 0
KLA1 220512Z 14005KT 19/19 A2994 RMK A01 T01860186  RH  100%=      5-min Rain = 0
KLA1 220513Z 14004KT 19/19 A2994 RMK A01 T01850186  RH  100%=      5-min Rain = 0
KLA1 220514Z 14004KT 19/19 A2994 RMK A01 T01850185  RH  100%=      5-min Rain = 0
KLA1 220515Z 14004KT 19/19 A2994 RMK A01 T01850185  RH  100%=      5-min Rain = 0
KLA1 220516Z 14004KT 18/19 A2994 RMK A01 T01840185  RH  100%=      5-min Rain = 0
KLA1 220517Z 14004KT 18/19 A2994 RMK A01 T01840185  RH  100%=      5-min Rain = 0
KLA1 220518Z 13003KT 19/19 A2994 RMK A01 T01850185  RH  100%=      5-min Rain = 0
KLA1 220519Z 13003KT 18/19 A2994 RMK A01 T01840185  RH  100%=      5-min Rain = 0
KLA1 220520Z 12003KT 18/18 A2994 RMK A01 T01840184  RH  100%=      5-min Rain = 0
KLA1 220521Z 12003KT 18/18 A2994 RMK A01 T01840184  RH  100%=      5-min Rain = 0
KLA1 220522Z 12002KT 18/18 A2994 RMK A01 T01840184  RH  100%=      5-min Rain = 0
KLA1 220523Z 12002KT 18/18 A2994 RMK A01 T01840184  RH  100%=      5-min Rain = 0
KLA1 220524Z 13002KT 18/18 A2994 RMK A01 T01840184  RH  100%=      5-min Rain = 0
KLA1 220525Z 12002KT 18/18 A2994 RMK A01 T01840184  RH  100%=      5-min Rain = 0
KLA1 220526Z 12003KT 18/18 A2994 RMK A01 T01840184  RH  100%=      5-min Rain = 0
KLA1 220527Z 13003KT 18/18 A2994 RMK A01 T01840184  RH  100%=      5-min Rain = 0
KLA1 220528Z 12003KT 18/18 A2994 RMK A01 T01840184  RH  100%=      5-min Rain = 0
KLA1 220529Z 12003KT 18/18 A2994 RMK A01 T01840184  RH  100%=      5-min Rain = 0
KLA1 220530Z 11003KT 18/18 A2994 RMK A01 T01840184  RH  100%=      5-min Rain = 0
KLA1 220531Z 12004KT 18/18 A2994 RMK A01 T01840184  RH  100%=      5-min Rain = 0
KLA1 220532Z 12004KT 18/19 A2994 RMK A01 T01840185  RH  100%=      5-min Rain = 0
KLA1 220533Z 12003KT 18/18 A2994 RMK A01 T01840184  RH  100%=      5-min Rain = 0
KLA1 220534Z 12003KT 19/19 A2994 RMK A01 T01850185  RH  100%=      5-min Rain = 0
KLA1 220535Z 12004KT 19/19 A2994 RMK A01 T01850185  RH  100%=      5-min Rain = 0
KLA1 220536Z 12003KT 18/19 A2994 RMK A01 T01840185  RH  100%=      5-min Rain = 0
KLA1 220537Z 12003KT 19/19 A2994 RMK A01 T01850185  RH  100%=      5-min Rain = 0
KLA1 220538Z 12003KT 18/18 A2994 RMK A01 T01840184  RH  100%=      5-min Rain = 0
KLA1 220539Z 12002KT 18/19 A2994 RMK A01 T01840185  RH  100%=      5-min Rain = 0
KLA1 220540Z 12002KT 18/18 A2994 RMK A01 T01840184  RH  100%=      5-min Rain = 0
KLA1 220541Z 11002KT 18/18 A2994 RMK A01 T01840184  RH  100%=      5-min Rain = 0
KLA1 220542Z 10002KT 19/19 A2994 RMK A01 T01850185  RH  100%=      5-min Rain = 0
KLA1 220543Z 10002KT 19/19 A2994 RMK A01 T01850185  RH  100%=      5-min Rain = 0
KLA1 220544Z 09002KT 19/19 A2994 RMK A01 T01850185  RH  100%=      5-min Rain = 0
KLA1 220545Z 10002KT 19/19 A2994 RMK A01 T01850185  RH  100%=      5-min Rain = 0
KLA1 220546Z 10003KT 19/19 A2994 RMK A01 T01850185  RH  100%=      5-min Rain = 0
KLA1 220547Z 09003KT 19/19 A2994 RMK A01 T01850185  RH  100%=      5-min Rain = 0
KLA1 220548Z 10003KT 19/19 A2994 RMK A01 T01850185  RH  100%=      5-min Rain = 0
KLA1 220549Z 10002KT 19/19 A2995 RMK A01 T01850186  RH  100%=      5-min Rain = 0
KLA1 220550Z 03000KT 19/19 A2995 RMK A01 T01850186  RH  100%=      5-min Rain = 0
KLA1 220551Z 01001KT 19/19 A2995 RMK A01 T01860186  RH  100%=      5-min Rain = 0
KLA1 220552Z 32002KT 19/19 A2996 RMK A01 T01860186  RH  100%=      5-min Rain = 0
KLA1 220553Z 31005KT 19/19 A2996 RMK A01 T01860186  RH  100%=      5-min Rain = 0
KLA1 220554Z 30009KT 19/19 A2997 RMK A01 T01860186  RH  100%=      5-min Rain = 0
KLA1 220555Z 30010KT 19/19 A2997 RMK A01 T01870187  RH  100%=      5-min Rain = 0
KLA1 220556Z 29011KT 19/19 A2998 RMK A01 T01870187  RH  100%=      5-min Rain = 0
KLA1 220557Z 30011KT 19/19 A2998 RMK A01 T01870187  RH  100%=      5-min Rain = 0
KLA1 220558Z 30011KT 19/19 A2998 RMK A01 T01870187  RH  100%=      5-min Rain = 0
KLA1 220559Z 30009KT 19/19 A2998 RMK A01 T01870186  RH  100%=      5-min Rain = 0

Page generated in 0.1194 seconds.